KJ6MC Weather Reports


time (UTC)temp
C
wind
direction
speed
KPH
gust
KPH
rain 1hr
cm
rain 24hr
cm
rain mn
cm
humidity
%
barometer
mb
20260904155241 17 211 4.8 9.7 0.00 0.08 0.08 84 1013.3
20260904155144 17 229 4.8 9.7 0.00 0.08 0.08 84 1013.2
20260904155129 16 239 4.8 9.7 0.00 0.08 0.08 84 1013.2
20260904154940 16 217 4.8 9.7 0.00 0.08 0.08 84 1013.2
20260904154843 16 215 4.8 9.7 0.00 0.08 0.08 84 1013.2
20260904154735 16 236 4.8 9.7 0.00 0.08 0.08 85 1013.2
20260904154639 16 174 4.8 9.7 0.00 0.08 0.08 85 1013.2
20260904154534 16 224 4.8 9.7 0.00 0.08 0.08 84 1013.2
20260904154512 16 214 4.8 9.7 0.00 0.08 0.08 85 1013.2
20260904154434 16 154 3.2 8.0 0.00 0.08 0.08 85 1013.2
20260904154333 16 129 4.8 8.0 0.00 0.08 0.08 84 1013.2
20260904154229 16 238 4.8 9.7 0.00 0.08 0.08 85 1013.2
20260904154128 16 205 3.2 9.7 0.00 0.08 0.08 84 1013.2
20260904154028 16 190 3.2 9.7 0.00 0.08 0.08 84 1013.2
20260904154006 16 217 3.2 9.7 0.00 0.08 0.08 84 1013.2
20260904153927 16 224 3.2 9.7 0.00 0.08 0.08 84 1013.2
20260904153828 16 175 3.2 9.7 0.00 0.08 0.08 85 1013.1
20260904153723 16 152 3.2 9.7 0.00 0.08 0.08 85 1013.1
20260904153621 16 117 3.2 9.7 0.00 0.08 0.08 85 1013.2
20260904153522 16 134 3.2 9.7 0.00 0.08 0.08 85 1013.2
20260904153501 16 167 3.2 9.7 0.00 0.08 0.08 84 1013.2
20260904153422 16 188 3.2 9.7 0.00 0.08 0.08 84 1013.2
20260904153321 16 210 3.2 9.7 0.00 0.08 0.08 85 1013.1
20260904153216 16 260 3.2 9.7 0.00 0.08 0.08 86 1013.2
20260904153115 16 129 3.2 9.7 0.00 0.08 0.08 86 1013.1
20260904153016 16 143 3.2 9.7 0.00 0.08 0.08 86 1013.1
20260904152954 16 135 3.2 9.7 0.00 0.08 0.08 86 1013.1
20260904152916 16 136 3.2 9.7 0.00 0.08 0.08 86 1013.1
20260904152815 16 226 4.8 9.7 0.00 0.08 0.08 85 1013.1
20260904152712 16 233 4.8 9.7 0.00 0.08 0.08 85 1013.1
20260904152610 16 183 4.8 9.7 0.00 0.08 0.08 85 1013.1
20260904152513 16 197 4.8 9.7 0.00 0.08 0.08 86 1013.1
20260904152503 16 159 4.8 11.3 0.00 0.08 0.08 86 1013.1
20260904152410 16 113 4.8 11.3 0.00 0.08 0.08 86 1013.1
20260904152309 16 134 4.8 11.3 0.00 0.08 0.08 86 1013.1
20260904152205 16 163 4.8 11.3 0.00 0.08 0.08 86 1013.0
20260904152104 16 212 4.8 11.3 0.00 0.08 0.08 86 1013.0
20260904152003 16 122 4.8 11.3 0.00 0.08 0.08 86 1013.0
20260904151943 16 225 4.8 11.3 0.00 0.08 0.08 86 1013.0
20260904151904 16 225 4.8 11.3 0.00 0.08 0.08 86 1013.0
20260904151803 16 129 3.2 11.3 0.00 0.08 0.08 86 1013.1
20260904151703 16 225 3.2 11.3 0.00 0.08 0.08 86 1013.1
20260904151601 16 208 3.2 11.3 0.00 0.08 0.08 86 1013.1
20260904151501 16 95 3.2 11.3 0.00 0.08 0.08 86 1013.1
20260904151436 16 190 3.2 9.7 0.00 0.08 0.08 86 1013.1
20260904151400 16 203 3.2 9.7 0.00 0.08 0.08 87 1013.1
20260904151258 16 226 3.2 9.7 0.00 0.08 0.08 86 1013.1
20260904151152 16 129 3.2 6.4 0.00 0.08 0.08 87 1013.1
20260904151051 16 224 3.2 6.4 0.00 0.08 0.08 87 1013.1
20260904150952 16 217 3.2 6.4 0.00 0.08 0.08 87 1013.2
20260904150931 16 149 3.2 6.4 0.00 0.08 0.08 87 1013.2
20260904150852 16 141 3.2 6.4 0.00 0.08 0.08 87 1013.1
20260904150751 16 194 3.2 6.4 0.00 0.08 0.08 87 1013.1
20260904150652 16 183 3.2 6.4 0.00 0.08 0.08 87 1013.1
20260904150549 16 231 3.2 9.7 0.00 0.08 0.08 87 1013.1
20260904150448 16 211 3.2 9.7 0.00 0.08 0.08 87 1013.1
20260904150427 16 215 3.2 9.7 0.00 0.08 0.08 87 1013.1
20260904150348 16 221 3.2 9.7 0.00 0.08 0.08 87 1013.0
20260904150246 16 210 3.2 9.7 0.00 0.08 0.08 88 1013.1
20260904150143 16 148 3.2 9.7 0.00 0.08 0.08 88 1013.0
20260904150040 16 149 3.2 9.7 0.00 0.08 0.08 88 1013.1
20260904145939 16 160 3.2 9.7 0.00 0.08 0.08 88 1013.0
20260904145919 16 149 3.2 9.7 0.00 0.08 0.08 88 1013.0
20260904145841 16 158 3.2 9.7 0.00 0.08 0.08 88 1013.0
20260904145740 16 218 3.2 9.7 0.00 0.08 0.08 88 1013.1
20260904145634 16 229 1.6 9.7 0.00 0.08 0.08 88 1013.0
20260904145533 16 231 1.6 8.0 0.00 0.08 0.08 89 1013.0
20260904145412 16 143 1.6 4.8 0.00 0.08 0.08 90 1013.0
20260904145333 16 144 1.6 4.8 0.00 0.08 0.08 90 1013.0
20260904145234 15 104 1.6 4.8 0.00 0.08 0.08 90 1013.0
20260904145129 15 135 1.6 4.8 0.00 0.08 0.08 90 1013.0
20260904145027 15 138 0.0 4.8 0.00 0.08 0.08 90 1013.0
20260904144927 15 138 1.6 4.8 0.00 0.08 0.08 90 1013.0
20260904144909 15 138 0.0 4.8 0.00 0.08 0.08 90 1013.0
20260904144827 15 135 0.0 4.8 0.00 0.08 0.08 91 1013.0
20260904144728 15 139 0.0 4.8 0.00 0.08 0.08 91 1013.0
20260904144624 15 139 1.6 4.8 0.00 0.08 0.08 90 1013.0
20260904144522 15 138 1.6 4.8 0.00 0.08 0.08 90 1013.0
20260904144422 15 133 1.6 4.8 0.00 0.08 0.08 90 1013.0
20260904144401 15 186 1.6 4.8 0.00 0.08 0.08 90 1013.0
20260904144321 15 211 1.6 6.4 0.00 0.08 0.08 91 1013.0
20260904144222 15 186 1.6 6.4 0.00 0.08 0.08 91 1012.9
20260904144125 15 235 1.6 6.4 0.00 0.08 0.08 91 1012.9
20260904144118 15 186 1.6 6.4 0.00 0.08 0.08 90 1012.9
20260904144015 15 188 1.6 6.4 0.00 0.08 0.08 91 1012.9
20260904144005 15 196 1.6 6.4 0.00 0.08 0.08 91 1012.9
20260904143816 15 235 1.6 6.4 0.00 0.08 0.08 90 1012.9
20260904143715 15 225 1.6 6.4 0.00 0.08 0.08 90 1012.9
20260904143624 15 236 0.0 6.4 0.00 0.08 0.08 90 1012.8
20260904143612 15 203 0.0 6.4 0.00 0.08 0.08 90 1012.9
20260904143510 15 236 0.0 6.4 0.00 0.08 0.08 91 1012.8
20260904143410 15 236 0.0 6.4 0.00 0.08 0.08 90 1012.8
20260904143310 15 245 0.0 3.2 0.00 0.08 0.08 90 1012.8
20260904143210 15 190 0.0 3.2 0.00 0.08 0.08 90 1012.8
20260904143110 15 186 0.0 3.2 0.00 0.08 0.08 90 1012.8
20260904143008 15 186 0.0 3.2 0.00 0.08 0.08 90 1012.8
20260904142907 15 186 0.0 3.2 0.00 0.08 0.08 90 1012.7
20260904142856 15 186 0.0 3.2 0.00 0.08 0.08 90 1012.7
20260904142805 15 186 0.0 3.2 0.00 0.08 0.08 90 1012.7
20260904142705 15 186 1.6 3.2 0.00 0.08 0.08 90 1012.7
20260904142558 15 186 1.6 3.2 0.00 0.08 0.08 90 1012.7
20260904142458 15 186 1.6 3.2 0.00 0.08 0.08 90 1012.6
20260904142357 15 186 1.6 3.2 0.00 0.08 0.08 90 1012.6
20260904142337 15 211 1.6 3.2 0.00 0.08 0.08 90 1012.6
20260904142257 15 211 1.6 3.2 0.00 0.08 0.08 90 1012.6
20260904142159 15 136 1.6 9.7 0.00 0.08 0.08 90 1012.5
20260904142055 15 136 1.6 11.3 0.00 0.08 0.08 90 1012.5
20260904141955 15 134 1.6 11.3 0.00 0.08 0.08 90 1012.5
20260904141831 15 134 3.2 11.3 0.00 0.08 0.08 90 1012.5
20260904141753 15 134 3.2 11.3 0.00 0.08 0.08 90 1012.4
20260904141652 15 129 3.2 11.3 0.00 0.08 0.08 90 1012.4
20260904141547 15 143 3.2 11.3 0.00 0.08 0.08 90 1012.4
20260904141448 15 258 3.2 11.3 0.00 0.08 0.08 90 1012.4
20260904141348 15 193 3.2 11.3 0.00 0.08 0.08 90 1012.4
20260904141326 15 155 3.2 11.3 0.00 0.08 0.08 90 1012.4
20260904141311 15 231 3.2 8.0 0.00 0.08 0.08 90 1012.3
20260904141248 15 120 3.2 11.3 0.00 0.08 0.08 90 1012.4
20260904141158 15 222 3.2 8.0 0.00 0.08 0.08 90 1012.4
20260904141040 15 131 3.2 8.0 0.00 0.08 0.08 90 1012.4
20260904140940 15 222 3.2 8.0 0.00 0.08 0.08 90 1012.4
20260904140931 15 193 3.2 8.0 0.00 0.08 0.08 90 1012.3
20260904140804 15 216 1.6 6.4 0.00 0.08 0.08 90 1012.3
20260904140740 15 207 3.2 8.0 0.00 0.08 0.08 90 1012.3
20260904140650 15 192 3.2 8.0 0.00 0.08 0.08 90 1012.3
20260904140536 15 231 3.2 8.0 0.00 0.08 0.08 90 1012.3
20260904140435 15 210 1.6 6.4 0.00 0.08 0.08 90 1012.2
20260904140423 15 215 1.6 6.4 0.00 0.08 0.08 90 1012.2
20260904140237 15 193 1.6 6.4 0.00 0.08 0.08 90 1012.3
20260904140133 15 200 1.6 4.8 0.00 0.08 0.08 90 1012.2
20260904140032 15 211 0.0 4.8 0.00 0.08 0.08 90 1012.3
20260904135932 15 179 0.0 3.2 0.00 0.08 0.08 90 1012.2
20260904135807 15 190 0.0 3.2 0.00 0.08 0.08 90 1012.3
20260904135730 15 190 0.0 4.8 0.00 0.08 0.08 90 1012.3
20260904135627 15 190 1.6 4.8 0.00 0.08 0.08 90 1012.3
20260904135522 15 190 0.0 4.8 0.00 0.08 0.08 90 1012.3
20260904135422 15 190 0.0 4.8 0.00 0.08 0.08 90 1012.3
20260904135321 15 190 1.6 4.8 0.00 0.08 0.08 89 1012.2
20260904135300 15 190 1.6 4.8 0.00 0.08 0.08 89 1012.2
20260904135223 15 190 1.6 4.8 0.00 0.08 0.08 89 1012.2
20260904135121 15 190 1.6 4.8 0.00 0.08 0.08 89 1012.2
20260904135022 15 190 1.6 4.8 0.00 0.08 0.08 89 1012.2
20260904134919 15 190 1.6 4.8 0.00 0.08 0.08 89 1012.2
20260904134820 15 190 1.6 4.8 0.00 0.08 0.08 89 1012.2
20260904134754 15 190 0.0 4.8 0.00 0.08 0.08 89 1012.2
20260904134718 15 191 0.0 4.8 0.00 0.08 0.08 89 1012.2
20260904134615 15 225 1.6 4.8 0.00 0.08 0.08 89 1012.1
20260904134509 15 225 1.6 4.8 0.00 0.08 0.08 89 1012.2
20260904134411 15 225 1.6 4.8 0.00 0.08 0.08 89 1012.2
20260904134310 15 226 1.6 4.8 0.00 0.08 0.08 89 1012.1
20260904134249 15 226 1.6 4.8 0.00 0.08 0.08 89 1012.1
20260904134210 15 226 1.6 4.8 0.00 0.08 0.08 89 1012.2
20260904134110 15 211 1.6 4.8 0.00 0.08 0.08 89 1012.1
20260904134005 15 136 1.6 4.8 0.00 0.08 0.08 89 1012.1
20260904133903 15 136 1.6 4.8 0.00 0.08 0.08 89 1012.1
20260904133803 15 136 3.2 8.0 0.00 0.08 0.08 89 1012.1
20260904133747 15 135 3.2 8.0 0.00 0.08 0.08 89 1012.1
20260904133703 15 136 1.6 8.0 0.00 0.08 0.08 89 1012.1
20260904133559 15 197 1.6 8.0 0.00 0.08 0.08 89 1012.0
20260904133456 15 229 1.6 8.0 0.00 0.08 0.08 89 1012.0
20260904133355 15 238 1.6 8.0 0.00 0.08 0.08 89 1012.0
20260904133232 15 147 1.6 8.0 0.00 0.08 0.08 88 1012.0
20260904133223 15 241 3.2 11.3 0.00 0.08 0.08 88 1011.9
20260904133156 15 146 1.6 8.0 0.00 0.08 0.08 88 1011.9
20260904133107 15 201 1.6 8.0 0.00 0.08 0.08 88 1012.0
20260904132951 15 239 3.2 8.0 0.00 0.08 0.08 88 1012.0
20260904132851 15 239 3.2 11.3 0.00 0.08 0.08 88 1012.0
20260904132836 15 207 3.2 11.3 0.00 0.08 0.08 88 1011.9
20260904132651 15 242 3.2 11.3 0.00 0.08 0.08 88 1012.0
20260904132547 15 242 3.2 11.3 0.00 0.08 0.08 88 1011.9
20260904132446 15 242 3.2 11.3 0.00 0.08 0.08 88 1011.9
20260904132345 15 212 3.2 11.3 0.00 0.08 0.08 88 1011.9
20260904132220 15 212 3.2 11.3 0.00 0.08 0.08 88 1011.8
20260904132145 15 231 3.2 11.3 0.00 0.08 0.08 88 1011.9
20260904132041 15 259 3.2 11.3 0.00 0.08 0.08 88 1011.8
20260904131940 15 229 3.2 11.3 0.00 0.08 0.08 88 1011.8
20260904131840 15 144 3.2 8.0 0.00 0.08 0.08 88 1011.8
20260904131739 16 222 3.2 8.0 0.00 0.08 0.08 88 1011.8
20260904131727 16 212 3.2 8.0 0.00 0.08 0.08 88 1011.8
20260904131638 16 236 3.2 8.0 0.00 0.08 0.08 88 1011.8
20260904131540 16 239 3.2 8.0 0.00 0.08 0.08 88 1011.8
20260904131429 16 221 3.2 8.0 0.00 0.08 0.08 88 1011.8
20260904131329 16 242 3.2 8.0 0.00 0.08 0.08 88 1011.8
20260904131231 16 238 3.2 8.0 0.00 0.08 0.08 88 1011.8
20260904131209 16 229 3.2 8.0 0.00 0.08 0.08 88 1011.8
20260904131130 16 231 3.2 8.0 0.00 0.08 0.08 88 1011.8
20260904131030 16 233 3.2 8.0 0.00 0.08 0.08 88 1011.8
20260904130926 16 203 3.2 6.4 0.00 0.08 0.08 89 1011.8
20260904130826 16 193 3.2 6.4 0.00 0.08 0.08 89 1011.7
20260904130726 16 155 1.6 6.4 0.00 0.08 0.08 89 1011.7
20260904130703 16 200 1.6 6.4 0.00 0.08 0.08 89 1011.7
20260904130625 16 212 1.6 6.4 0.00 0.08 0.08 89 1011.7
20260904130524 16 198 1.6 6.4 0.00 0.08 0.08 88 1011.7
20260904130417 16 226 1.6 6.4 0.00 0.08 0.08 88 1011.7
20260904130318 16 226 1.6 6.4 0.00 0.08 0.08 88 1011.7
20260904130220 16 228 1.6 6.4 0.00 0.08 0.08 88 1011.7
20260904130209 16 228 3.2 6.4 0.00 0.08 0.08 88 1011.7
20260904130117 16 229 3.2 6.4 0.00 0.08 0.08 88 1011.7
20260904130019 16 208 3.2 6.4 0.00 0.08 0.08 88 1011.7
20260904125911 16 210 3.2 9.7 0.00 0.08 0.08 88 1011.7
20260904125812 16 129 3.2 9.7 0.00 0.08 0.08 88 1011.7
20260904125712 16 138 4.8 9.7 0.00 0.08 0.08 88 1011.7
20260904125651 16 138 4.8 9.7 0.00 0.08 0.08 88 1011.7
20260904125613 16 137 4.8 14.5 0.00 0.08 0.08 88 1011.7
20260904125511 16 221 4.8 14.5 0.00 0.08 0.08 88 1011.7
20260904125412 16 228 4.8 14.5 0.00 0.08 0.08 88 1011.7
20260904125310 16 228 4.8 14.5 0.00 0.08 0.08 88 1011.8
20260904125214 16 232 4.8 14.5 0.00 0.08 0.08 88 1011.8
20260904125145 16 238 4.8 14.5 0.00 0.08 0.08 88 1011.8
20260904125108 16 162 4.8 14.5 0.00 0.08 0.08 88 1011.7
20260904125006 16 194 3.2 14.5 0.00 0.08 0.08 88 1011.7
20260904124859 16 231 3.2 14.5 0.00 0.08 0.08 88 1011.7
20260904124800 16 231 3.2 14.5 0.00 0.08 0.08 88 1011.7
20260904124700 16 248 3.2 14.5 0.00 0.08 0.08 88 1011.7
20260904124638 16 258 3.2 14.5 0.00 0.08 0.08 88 1011.7
20260904124600 16 231 3.2 8.0 0.00 0.08 0.08 88 1011.7
20260904124459 16 198 1.6 8.0 0.00 0.08 0.08 89 1011.7
20260904124355 16 228 1.6 6.4 0.00 0.08 0.08 89 1011.6
20260904124256 16 269 3.2 6.4 0.00 0.08 0.08 89 1011.6
20260904124156 16 212 3.2 11.3 0.00 0.08 0.08 89 1011.6
20260904124133 16 225 3.2 11.3 0.00 0.08 0.08 89 1011.6
20260904124056 16 222 3.2 11.3 0.00 0.08 0.08 89 1011.7
20260904123954 16 217 3.2 11.3 0.00 0.08 0.08 89 1011.6
20260904123852 16 219 3.2 11.3 0.00 0.08 0.08 89 1011.6
20260904123752 16 160 3.2 11.3 0.00 0.08 0.08 89 1011.6
20260904123627 16 190 3.2 11.3 0.00 0.08 0.08 89 1011.6
20260904123550 16 195 3.2 11.3 0.00 0.08 0.08 89 1011.6
20260904123447 16 218 3.2 11.3 0.00 0.08 0.08 89 1011.6
20260904123348 16 205 3.2 11.3 0.00 0.08 0.08 89 1011.6
20260904123246 16 214 3.2 11.3 0.00 0.08 0.08 89 1011.6
20260904123146 16 205 3.2 9.7 0.00 0.08 0.08 89 1011.6
20260904123120 16 225 3.2 9.7 0.00 0.08 0.08 89 1011.6
20260904123043 16 233 3.2 9.7 0.00 0.08 0.08 89 1011.6
20260904122941 16 136 3.2 9.7 0.00 0.08 0.08 89 1011.6
20260904122837 16 214 3.2 9.7 0.00 0.08 0.08 89 1011.5
20260904122735 16 193 3.2 9.7 0.00 0.08 0.08 89 1011.5
20260904122639 16 235 3.2 9.7 0.00 0.08 0.08 89 1011.5
20260904122613 16 236 3.2 9.7 0.00 0.08 0.08 89 1011.6
20260904122536 16 235 3.2 9.7 0.00 0.08 0.08 89 1011.6
20260904122435 16 235 3.2 9.7 0.00 0.08 0.08 89 1011.5
20260904122329 16 135 3.2 9.7 0.00 0.08 0.08 89 1011.5
20260904122229 16 242 3.2 9.7 0.00 0.08 0.08 89 1011.5
20260904122129 16 226 3.2 9.7 0.00 0.08 0.08 89 1011.5
20260904122108 16 259 3.2 9.7 0.00 0.08 0.08 89 1011.5
20260904122029 16 198 3.2 9.7 0.00 0.08 0.08 89 1011.5
20260904121929 16 205 3.2 9.7 0.00 0.08 0.08 89 1011.5
20260904121833 16 243 3.2 11.3 0.00 0.08 0.08 89 1011.5
20260904121728 16 226 3.2 11.3 0.00 0.08 0.08 89 1011.5
20260904121627 16 217 3.2 11.3 0.00 0.08 0.08 89 1011.5
20260904121602 16 166 4.8 11.3 0.00 0.08 0.08 89 1011.5
20260904121525 16 166 4.8 11.3 0.00 0.08 0.08 89 1011.5
20260904121423 16 211 3.2 11.3 0.00 0.08 0.08 89 1011.5
20260904121327 16 252 3.2 11.3 0.00 0.08 0.08 89 1011.5
20260904121320 16 212 3.2 11.3 0.00 0.08 0.08 89 1011.5
20260904121220 16 224 3.2 11.3 0.00 0.08 0.08 89 1011.5
20260904121212 16 145 3.2 11.3 0.00 0.08 0.08 89 1011.5
20260904121018 16 229 3.2 11.3 0.00 0.08 0.08 90 1011.5
20260904120917 16 214 3.2 8.0 0.00 0.08 0.08 90 1011.5
20260904120814 16 214 3.2 8.0 0.00 0.08 0.08 90 1011.5
20260904120712 16 161 3.2 8.0 0.00 0.08 0.08 89 1011.5
20260904120612 16 169 3.2 6.4 0.00 0.08 0.08 90 1011.5
20260904120550 16 210 3.2 6.4 0.00 0.08 0.08 90 1011.5
20260904120512 16 193 3.2 11.3 0.00 0.08 0.08 89 1011.4
20260904120411 16 219 3.2 11.3 0.00 0.08 0.08 89 1011.4
20260904120311 16 219 3.2 11.3 0.00 0.08 0.08 89 1011.5
20260904120211 16 255 3.2 11.3 0.00 0.08 0.08 90 1011.4
20260904120108 16 238 3.2 11.3 0.00 0.08 0.08 90 1011.4
20260904120057 16 211 3.2 11.3 0.00 0.08 0.08 90 1011.4
20260904120008 16 212 4.8 11.3 0.00 0.08 0.08 90 1011.4
20260904115905 16 148 4.8 11.3 0.00 0.08 0.08 89 1011.4
20260904115801 16 242 4.8 11.3 0.00 0.08 0.08 89 1011.4
20260904115700 16 211 4.8 11.3 0.00 0.08 0.08 89 1011.4
20260904115559 16 260 4.8 11.3 0.00 0.08 0.08 89 1011.4
20260904115539 16 242 4.8 11.3 0.00 0.08 0.08 89 1011.4
20260904115500 16 241 4.8 9.7 0.00 0.08 0.08 90 1011.4
20260904115359 16 199 4.8 9.7 0.00 0.08 0.08 90 1011.4
20260904115254 16 236 4.8 8.0 0.00 0.08 0.08 90 1011.4
20260904115154 16 233 4.8 8.0 0.00 0.08 0.08 90 1011.4
20260904115054 16 231 4.8 9.7 0.00 0.08 0.08 90 1011.4
20260904115032 16 243 4.8 9.7 0.00 0.08 0.08 90 1011.4
20260904114953 16 233 3.2 9.7 0.00 0.08 0.08 90 1011.4
20260904114854 16 192 3.2 9.7 0.00 0.08 0.08 90 1011.4
20260904114750 16 169 3.2 9.7 0.00 0.08 0.08 90 1011.4
20260904114649 16 217 3.2 9.7 0.00 0.08 0.08 91 1011.5
20260904114548 16 179 3.2 9.7 0.00 0.08 0.08 90 1011.5
20260904114527 16 150 3.2 9.7 0.00 0.08 0.08 90 1011.5
20260904114448 16 134 3.2 9.7 0.00 0.08 0.08 90 1011.5
20260904114347 16 226 3.2 9.7 0.00 0.08 0.08 90 1011.4
20260904114246 16 219 1.6 6.4 0.00 0.08 0.08 91 1011.5
20260904114241 16 233 3.2 9.7 0.00 0.08 0.08 90 1011.5
20260904114142 16 250 1.6 9.7 0.00 0.08 0.08 91 1011.5
20260904114131 16 207 1.6 8.0 0.00 0.08 0.08 91 1011.5
20260904113941 16 222 1.6 6.4 0.00 0.08 0.08 91 1011.5
20260904113841 16 218 1.6 6.4 0.00 0.08 0.08 91 1011.4
20260904113741 16 238 1.6 4.8 0.00 0.08 0.08 91 1011.4
20260904113737 16 236 1.6 6.4 0.00 0.08 0.08 91 1011.4
20260904113637 16 237 1.6 6.4 0.00 0.08 0.08 90 1011.4
20260904113625 16 240 1.6 4.8 0.00 0.08 0.08 91 1011.4
20260904113436 16 233 0.0 4.8 0.00 0.08 0.08 91 1011.4
20260904113336 16 232 0.0 3.2 0.00 0.08 0.08 91 1011.4
20260904113232 16 232 0.0 3.2 0.00 0.08 0.08 91 1011.4
20260904113130 16 232 1.6 6.4 0.00 0.08 0.08 91 1011.4
20260904113008 16 215 1.6 6.4 0.00 0.08 0.08 91 1011.4
20260904112929 16 216 1.6 6.4 0.00 0.08 0.08 91 1011.4
20260904112834 16 210 1.6 6.4 0.00 0.08 0.08 91 1011.4
20260904112736 16 172 3.2 9.7 0.00 0.08 0.08 91 1011.3
20260904112730 16 210 1.6 8.0 0.00 0.08 0.08 91 1011.3
20260904112627 16 210 1.6 8.0 0.00 0.08 0.08 91 1011.3
20260904112528 16 172 3.2 9.7 0.00 0.08 0.08 91 1011.3
20260904112426 16 172 3.2 9.7 0.00 0.08 0.08 91 1011.3
20260904112324 16 172 3.2 9.7 0.00 0.08 0.08 91 1011.3
20260904112219 16 190 3.2 9.7 0.00 0.08 0.08 91 1011.4
20260904112118 16 211 3.2 9.7 0.00 0.08 0.08 91 1011.3
20260904112018 16 228 3.2 9.7 0.00 0.08 0.08 91 1011.3
20260904111956 16 248 3.2 9.7 0.00 0.08 0.08 91 1011.4
20260904111918 16 185 3.2 9.7 0.00 0.08 0.08 91 1011.3
20260904111818 16 188 3.2 9.7 0.00 0.08 0.08 91 1011.3
20260904111715 16 239 3.2 9.7 0.00 0.08 0.08 91 1011.3
20260904111611 16 239 3.2 9.7 0.00 0.08 0.08 91 1011.3
20260904111511 16 229 3.2 8.0 0.00 0.08 0.08 91 1011.3
20260904111455 16 229 3.2 8.0 0.00 0.08 0.08 91 1011.3
20260904111411 16 229 3.2 8.0 0.00 0.08 0.08 91 1011.3
20260904111311 16 217 3.2 8.0 0.00 0.08 0.08 91 1011.3
20260904111207 16 230 3.2 8.0 0.00 0.08 0.08 91 1011.3
20260904111105 16 232 3.2 8.0 0.00 0.08 0.08 91 1011.3
20260904111006 16 205 3.2 6.4 0.00 0.08 0.08 91 1011.3
20260904110955 16 226 3.2 6.4 0.00 0.08 0.08 91 1011.3
20260904110906 16 199 3.2 6.4 0.00 0.08 0.08 91 1011.3
20260904110805 16 222 3.2 9.7 0.00 0.08 0.08 91 1011.3
20260904110704 16 228 3.2 9.7 0.00 0.08 0.08 91 1011.2
20260904110600 16 256 3.2 9.7 0.00 0.08 0.08 91 1011.3
20260904110502 16 148 3.2 9.7 0.00 0.08 0.08 91 1011.2
20260904110452 16 167 3.2 9.7 0.00 0.08 0.08 91 1011.2
20260904110400 16 181 3.2 9.7 0.00 0.08 0.08 91 1011.2
20260904110259 16 222 4.8 9.7 0.00 0.08 0.08 91 1011.2
20260904110156 16 236 4.8 9.7 0.00 0.08 0.08 91 1011.2
20260904110054 16 233 4.8 9.7 0.00 0.08 0.08 91 1011.1
20260904105959 16 188 4.8 9.7 0.00 0.08 0.08 91 1011.2
20260904105953 16 187 4.8 9.7 0.00 0.08 0.08 91 1011.2
20260904105853 16 243 3.2 9.7 0.00 0.08 0.08 92 1011.2
20260904105753 16 233 3.2 6.4 0.00 0.08 0.08 92 1011.2
20260904105655 16 212 3.2 6.4 0.00 0.08 0.08 92 1011.2
20260904105551 16 226 3.2 6.4 0.00 0.08 0.08 92 1011.1
20260904105455 16 197 3.2 6.4 0.00 0.08 0.08 92 1011.1
20260904105449 16 203 3.2 6.4 0.00 0.08 0.08 92 1011.1
20260904105350 16 240 3.2 6.4 0.00 0.08 0.08 92 1011.2
20260904105248 16 217 3.2 8.0 0.00 0.08 0.08 92 1011.1
20260904105145 16 163 3.2 8.0 0.00 0.08 0.08 92 1011.1
20260904105042 16 146 1.6 8.0 0.00 0.08 0.08 92 1011.1
20260904104950 16 214 3.2 8.0 0.00 0.08 0.08 92 1011.1
20260904104941 16 194 3.2 8.0 0.00 0.08 0.08 92 1011.1
20260904104842 16 218 3.2 8.0 0.00 0.08 0.08 92 1011.1
20260904104741 16 236 3.2 8.0 0.00 0.08 0.08 92 1011.1
20260904104637 16 221 3.2 8.0 0.00 0.08 0.08 92 1011.1
20260904104536 16 166 3.2 8.0 0.00 0.08 0.08 92 1011.2
20260904104453 16 235 3.2 8.0 0.00 0.08 0.08 92 1011.1
20260904104435 16 233 3.2 8.0 0.00 0.08 0.08 92 1011.1
20260904104336 16 226 3.2 9.7 0.00 0.08 0.08 92 1011.1
20260904104235 16 236 3.2 9.7 0.00 0.08 0.08 92 1011.1
20260904104216 16 219 3.2 9.7 0.00 0.08 0.08 92 1011.1
20260904104137 16 232 4.8 9.7 0.00 0.08 0.08 92 1011.1
20260904104101 16 222 4.8 9.7 0.00 0.08 0.08 92 1011.1
20260904103934 16 215 3.2 9.7 0.00 0.08 0.08 92 1011.1
20260904103832 16 197 3.2 9.7 0.00 0.08 0.08 92 1011.1
20260904103730 16 233 3.2 9.7 0.00 0.08 0.08 92 1011.1
20260904103624 16 188 3.2 9.7 0.00 0.08 0.08 92 1011.1
20260904103523 16 238 4.8 12.9 0.00 0.08 0.08 92 1011.0
20260904103449 16 233 3.2 12.9 0.00 0.08 0.08 92 1011.1
20260904103424 16 232 3.2 12.9 0.00 0.08 0.08 92 1011.1
20260904103324 16 222 3.2 12.9 0.00 0.08 0.08 92 1011.1
20260904103223 16 214 3.2 12.9 0.00 0.08 0.08 92 1011.1
20260904103118 16 233 3.2 12.9 0.00 0.08 0.08 92 1011.0
20260904103017 16 238 3.2 12.9 0.00 0.08 0.08 92 1011.1
20260904102948 16 222 3.2 12.9 0.00 0.08 0.08 92 1011.1
20260904102917 16 239 3.2 12.9 0.00 0.08 0.08 92 1011.1
20260904102818 16 232 3.2 12.9 0.00 0.08 0.08 92 1011.1
20260904102720 16 238 3.2 12.9 0.00 0.08 0.08 92 1011.1
20260904102711 15 199 3.2 8.0 0.00 0.08 0.08 92 1011.0
20260904102614 16 187 3.2 12.9 0.00 0.08 0.08 92 1011.1
20260904102559 15 223 3.2 8.0 0.00 0.08 0.08 92 1011.0
20260904102412 15 214 3.2 8.0 0.00 0.08 0.08 91 1011.0
20260904102312 15 240 3.2 8.0 0.00 0.08 0.08 91 1011.0
20260904102211 15 225 3.2 8.0 0.00 0.08 0.08 91 1011.1
20260904102106 15 198 3.2 11.3 0.00 0.08 0.08 91 1011.1
20260904102006 15 233 3.2 11.3 0.00 0.08 0.08 91 1011.0
20260904101949 15 215 3.2 11.3 0.00 0.08 0.08 91 1011.0
20260904101906 15 218 3.2 11.3 0.00 0.08 0.08 91 1011.0
20260904101805 15 239 3.2 11.3 0.00 0.08 0.08 91 1011.0
20260904101706 15 234 3.2 11.3 0.00 0.08 0.08 91 1011.0
20260904101604 15 211 3.2 11.3 0.00 0.08 0.08 91 1011.0
20260904101505 15 211 3.2 11.3 0.00 0.08 0.08 91 1010.9
20260904101448 15 212 3.2 11.3 0.00 0.08 0.08 91 1010.9
20260904101403 15 172 3.2 11.3 0.00 0.08 0.08 91 1011.0
20260904101301 15 228 1.6 11.3 0.00 0.08 0.08 91 1010.9
20260904101200 15 204 1.6 11.3 0.00 0.08 0.08 91 1011.0
20260904101057 15 236 1.6 4.8 0.00 0.08 0.08 91 1010.9
20260904100949 15 221 1.6 4.8 0.00 0.08 0.08 91 1010.9
20260904100857 15 221 1.6 4.8 0.00 0.08 0.08 91 1010.9
20260904100755 15 221 1.6 6.4 0.00 0.08 0.08 91 1010.9
20260904100653 15 221 1.6 6.4 0.00 0.08 0.08 91 1010.9
20260904100550 15 203 3.2 8.0 0.00 0.08 0.08 91 1011.0
20260904100448 15 239 3.2 8.0 0.00 0.08 0.08 91 1011.0
20260904100348 15 161 3.2 8.0 0.00 0.08 0.08 91 1011.0
20260904100248 15 161 3.2 8.0 0.00 0.08 0.08 91 1011.0
20260904100207 15 205 3.2 8.0 0.00 0.08 0.08 91 1011.0
20260904100147 15 211 3.2 8.0 0.00 0.08 0.08 91 1011.0
20260904100059 15 211 3.2 8.0 0.00 0.08 0.08 91 1011.0
20260904095942 15 201 3.2 8.0 0.00 0.08 0.08 91 1011.0
20260904095842 15 233 3.2 8.0 0.00 0.08 0.08 91 1011.0
20260904095742 15 218 3.2 8.0 0.00 0.08 0.08 91 1010.9
20260904095642 15 222 3.2 8.0 0.00 0.08 0.08 91 1011.0
20260904095535 15 210 1.6 8.0 0.00 0.08 0.08 91 1010.9
20260904095448 15 155 1.6 6.4 0.00 0.08 0.08 91 1010.9
20260904095435 15 156 1.6 6.4 0.00 0.08 0.08 91 1010.9
20260904095336 15 211 1.6 6.4 0.00 0.08 0.08 91 1010.9
20260904095234 15 213 1.6 6.4 0.00 0.08 0.08 91 1010.9
20260904095134 15 214 1.6 6.4 0.00 0.08 0.08 91 1010.9
20260904095030 15 219 1.6 6.4 0.00 0.08 0.08 91 1010.9
20260904094929 15 219 1.6 6.4 0.00 0.08 0.08 91 1010.9
20260904094830 15 219 1.6 6.4 0.00 0.08 0.08 91 1010.9
20260904094730 15 233 1.6 6.4 0.00 0.08 0.08 91 1010.9
20260904094629 15 233 3.2 6.4 0.00 0.08 0.08 91 1010.9
20260904094526 15 233 3.2 6.4 0.00 0.08 0.08 91 1010.9
20260904094426 15 229 3.2 6.4 0.00 0.08 0.08 91 1010.9
20260904094326 15 229 3.2 6.4 0.00 0.08 0.08 91 1010.9
20260904094224 15 212 3.2 6.4 0.00 0.08 0.08 91 1010.9
20260904094121 15 225 3.2 6.4 0.00 0.08 0.08 91 1011.0
20260904094018 15 232 3.2 6.4 0.00 0.08 0.08 91 1010.9
20260904093937 15 226 3.2 6.4 0.00 0.08 0.08 91 1010.9
20260904093917 15 225 3.2 6.4 0.00 0.08 0.08 91 1010.9
20260904093818 15 219 1.6 6.4 0.00 0.08 0.08 91 1010.9
20260904093718 15 227 1.6 6.4 0.00 0.08 0.08 91 1010.9
20260904093615 15 226 1.6 6.4 0.00 0.08 0.08 91 1011.0
20260904093509 15 214 1.6 4.8 0.00 0.08 0.08 91 1011.0
20260904093429 15 228 1.6 4.8 0.00 0.08 0.08 91 1011.0
20260904093410 15 203 1.6 4.8 0.00 0.08 0.08 91 1011.0
20260904093309 15 168 1.6 4.8 0.00 0.08 0.08 91 1010.9
20260904093210 15 224 1.6 4.8 0.00 0.08 0.08 91 1010.9
20260904093109 15 215 1.6 4.8 0.00 0.08 0.08 91 1010.9
20260904093005 15 218 1.6 4.8 0.00 0.08 0.08 91 1011.0
20260904092926 15 218 1.6 4.8 0.00 0.08 0.08 91 1011.0
20260904092904 15 218 1.6 4.8 0.00 0.08 0.08 91 1010.9
20260904092803 15 181 1.6 4.8 0.00 0.08 0.08 91 1010.9
20260904092704 15 226 1.6 4.8 0.00 0.08 0.08 91 1010.9
20260904092603 15 143 1.6 4.8 0.00 0.08 0.08 91 1010.9
20260904092501 15 231 1.6 4.8 0.00 0.08 0.08 91 1010.9
20260904092418 15 203 1.6 6.4 0.00 0.08 0.08 91 1010.9
20260904092401 15 233 1.6 6.4 0.00 0.08 0.08 91 1010.9
20260904092301 15 236 1.6 6.4 0.00 0.08 0.08 91 1010.9
20260904092200 15 236 1.6 6.4 0.00 0.08 0.08 91 1010.9
20260904092057 15 236 1.6 6.4 0.00 0.08 0.08 91 1010.8
20260904091957 15 236 1.6 6.4 0.00 0.08 0.08 91 1010.8
20260904091913 15 236 1.6 6.4 0.00 0.08 0.08 91 1010.8
20260904091855 15 237 1.6 6.4 0.00 0.08 0.08 91 1010.8
20260904091756 15 236 1.6 6.4 0.00 0.08 0.08 91 1010.8
20260904091654 15 236 1.6 6.4 0.00 0.08 0.08 91 1010.8
20260904091629 15 236 1.6 4.8 0.00 0.08 0.08 91 1010.9
20260904091551 15 236 1.6 6.4 0.00 0.08 0.08 91 1010.8
20260904091517 15 236 1.6 6.4 0.00 0.08 0.08 91 1010.9
20260904091345 15 236 1.6 4.8 0.00 0.08 0.08 91 1010.9
20260904091245 15 226 1.6 4.8 0.00 0.08 0.08 91 1010.9
20260904091146 15 208 1.6 4.8 0.00 0.08 0.08 91 1010.9
20260904091045 15 203 1.6 4.8 0.00 0.08 0.08 91 1010.9
20260904090946 15 214 1.6 4.8 0.00 0.08 0.08 91 1010.9
20260904090843 15 200 1.6 4.8 0.00 0.08 0.08 91 1010.9
20260904090744 15 200 1.6 4.8 0.00 0.08 0.08 91 1011.0
20260904090642 15 231 1.6 4.8 0.00 0.08 0.08 91 1011.0
20260904090539 15 226 1.6 4.8 0.00 0.08 0.08 91 1011.0
20260904090433 15 210 1.6 4.8 0.00 0.08 0.08 91 1011.0
20260904090333 15 210 1.6 4.8 0.00 0.08 0.08 91 1011.0
20260904090233 15 210 1.6 4.8 0.00 0.08 0.08 91 1011.0
20260904090134 15 210 1.6 4.8 0.00 0.08 0.08 91 1011.0
20260904090034 15 210 1.6 4.8 0.00 0.08 0.08 91 1011.0
20260904085934 15 219 1.6 4.8 0.00 0.08 0.08 91 1011.0
20260904085832 15 219 1.6 4.8 0.00 0.08 0.08 91 1011.0
20260904085731 15 214 1.6 4.8 0.00 0.08 0.08 91 1011.0
20260904085629 15 214 1.6 4.8 0.00 0.08 0.08 91 1011.1
20260904085527 15 211 1.6 3.2 0.00 0.08 0.08 91 1011.0
20260904085428 15 200 1.6 3.2 0.00 0.08 0.08 91 1011.0
20260904085325 15 200 1.6 3.2 0.00 0.08 0.08 91 1011.0
20260904085224 15 210 0.0 3.2 0.00 0.08 0.08 91 1011.0
20260904085124 15 205 0.0 3.2 0.00 0.08 0.08 91 1011.1
20260904085021 15 186 0.0 3.2 0.00 0.08 0.08 90 1011.1
20260904084922 15 228 0.0 3.2 0.00 0.08 0.08 91 1011.1
20260904084836 15 205 0.0 1.6 0.00 0.08 0.08 91 1011.1
20260904084819 15 204 0.0 1.6 0.00 0.08 0.08 91 1011.1
20260904084720 15 204 0.0 1.6 0.00 0.08 0.08 91 1011.1
20260904084618 15 204 0.0 1.6 0.00 0.08 0.08 91 1011.1
20260904084516 15 205 0.0 1.6 0.00 0.08 0.08 91 1011.1
20260904084412 15 204 0.0 1.6 0.00 0.08 0.08 91 1011.1
20260904084343 15 204 0.0 1.6 0.00 0.08 0.08 91 1011.1
20260904084312 15 204 0.0 1.6 0.00 0.08 0.08 91 1011.1
20260904084211 15 204 0.0 1.6 0.00 0.08 0.08 91 1011.1
20260904084112 15 204 0.0 3.2 0.00 0.08 0.08 91 1011.1
20260904084048 15 204 1.6 3.2 0.00 0.08 0.08 91 1011.1
20260904084009 15 205 0.0 3.2 0.00 0.08 0.08 91 1011.1
20260904083938 15 204 1.6 3.2 0.00 0.08 0.08 91 1011.1
20260904083808 15 204 1.6 3.2 0.00 0.08 0.08 91 1011.1
20260904083708 15 204 1.6 3.2 0.00 0.08 0.08 91 1011.1
20260904083606 15 204 1.6 3.2 0.00 0.08 0.08 91 1011.1
20260904083507 15 205 1.6 3.2 0.00 0.08 0.08 91 1011.1
20260904083404 15 205 1.6 3.2 0.00 0.08 0.08 91 1011.1
20260904083331 15 204 1.6 3.2 0.00 0.08 0.08 91 1011.1
20260904083302 15 205 1.6 3.2 0.00 0.08 0.08 91 1011.1
20260904083201 15 204 1.6 3.2 0.00 0.08 0.08 91 1011.1
20260904083100 15 200 0.0 3.2 0.00 0.08 0.08 91 1011.1
20260904083032 15 212 0.0 3.2 0.03 0.08 0.08 91 1011.1
20260904082957 15 225 0.0 3.2 0.00 0.08 0.08 91 1011.1
20260904082926 15 224 0.0 3.2 0.00 0.08 0.08 91 1011.1
20260904082755 15 212 0.0 3.2 0.03 0.08 0.08 91 1011.1
20260904082655 15 212 0.0 3.2 0.03 0.08 0.08 91 1011.1
20260904082554 15 226 0.0 3.2 0.03 0.08 0.08 91 1011.1
20260904082450 15 226 0.0 3.2 0.03 0.08 0.08 91 1011.1
20260904082352 15 226 0.0 3.2 0.03 0.08 0.08 91 1011.2
20260904082306 15 226 1.6 3.2 0.03 0.08 0.08 91 1011.1
20260904082249 15 226 1.6 3.2 0.03 0.08 0.08 91 1011.1
20260904082150 15 226 1.6 3.2 0.03 0.08 0.08 91 1011.1
20260904082047 15 226 1.6 3.2 0.03 0.08 0.08 91 1011.1
20260904081946 15 226 1.6 3.2 0.03 0.08 0.08 91 1011.2
20260904081846 15 226 1.6 3.2 0.03 0.08 0.08 91 1011.2
20260904081743 15 226 0.0 3.2 0.03 0.08 0.08 91 1011.1
20260904081643 15 232 1.6 3.2 0.03 0.08 0.08 91 1011.2
20260904081541 15 232 0.0 3.2 0.03 0.08 0.08 91 1011.2
20260904081520 15 236 0.0 3.2 0.05 0.08 0.08 91 1011.2
20260904081439 15 238 0.0 3.2 0.03 0.08 0.08 91 1011.2
20260904081405 15 238 0.0 3.2 0.03 0.08 0.08 91 1011.2
20260904081238 15 220 0.0 3.2 0.05 0.08 0.08 91 1011.2
20260904081138 15 158 0.0 3.2 0.05 0.08 0.08 91 1011.2
20260904081036 15 158 0.0 3.2 0.05 0.08 0.08 91 1011.1
20260904080933 15 136 0.0 4.8 0.05 0.08 0.08 91 1011.1
20260904080829 15 231 1.6 4.8 0.05 0.08 0.08 91 1011.2
20260904080748 15 231 1.6 4.8 0.05 0.08 0.08 91 1011.1
20260904080727 15 158 1.6 4.8 0.05 0.08 0.08 91 1011.1
20260904080628 15 158 1.6 4.8 0.05 0.08 0.08 91 1011.1
20260904080528 15 158 1.6 4.8 0.05 0.08 0.08 91 1011.1
20260904080427 15 158 1.6 4.8 0.05 0.08 0.08 91 1011.2
20260904080325 15 163 1.6 4.8 0.05 0.08 0.08 91 1011.1
20260904080226 15 162 3.2 6.4 0.05 0.08 0.08 91 1011.2
20260904080125 15 162 3.2 6.4 0.08 0.08 0.08 91 1011.2
20260904080024 15 235 3.2 6.4 0.08 0.08 0.08 91 1011.2
20260904075958 15 243 3.2 8.0 0.08 0.08 0.08 91 1011.2
20260904075922 15 207 3.2 6.4 0.08 0.08 0.08 91 1011.2
20260904075846 15 212 3.2 8.0 0.08 0.08 0.08 91 1011.2
20260904075718 15 223 3.2 8.0 0.08 0.08 0.08 91 1011.2
20260904075618 15 187 3.2 8.0 0.08 0.08 0.08 91 1011.2
20260904075517 15 224 3.2 8.0 0.08 0.08 0.08 91 1011.2
20260904075415 15 228 3.2 8.0 0.08 0.08 0.08 91 1011.2
20260904075309 16 231 3.2 8.0 0.08 0.08 0.08 91 1011.2
20260904075231 16 166 3.2 8.0 0.08 0.08 0.08 91 1011.2
20260904075210 16 229 3.2 8.0 0.08 0.08 0.08 91 1011.2
20260904075110 16 148 3.2 8.0 0.08 0.08 0.08 91 1011.2
20260904075009 16 266 3.2 8.0 0.08 0.08 0.08 91 1011.2
20260904074909 16 147 3.2 8.0 0.08 0.08 0.08 91 1011.3
20260904074810 16 225 3.2 8.0 0.08 0.08 0.08 91 1011.3
20260904074724 16 228 3.2 8.0 0.08 0.08 0.08 91 1011.3
20260904074708 16 222 3.2 8.0 0.08 0.08 0.08 91 1011.2
20260904074608 16 219 3.2 8.0 0.08 0.08 0.08 91 1011.2
20260904074506 16 229 3.2 8.0 0.08 0.08 0.08 91 1011.3
20260904074405 16 226 3.2 8.0 0.08 0.08 0.08 91 1011.2
20260904074303 16 226 3.2 8.0 0.08 0.08 0.08 91 1011.2
20260904074218 16 235 3.2 8.0 0.08 0.08 0.08 91 1011.2
20260904074202 16 221 3.2 6.4 0.08 0.08 0.08 91 1011.2
20260904074101 16 229 1.6 6.4 0.08 0.08 0.08 91 1011.2
20260904073959 16 214 1.6 4.8 0.08 0.08 0.08 91 1011.2
20260904073857 16 222 1.6 4.8 0.08 0.08 0.08 91 1011.1
20260904073755 16 155 1.6 4.8 0.08 0.08 0.08 91 1011.0
20260904073712 16 200 1.6 4.8 0.08 0.08 0.08 91 1011.1
20260904073656 16 203 1.6 4.8 0.08 0.08 0.08 91 1011.1
20260904073555 16 236 1.6 4.8 0.08 0.08 0.08 91 1011.1
20260904073453 16 229 1.6 4.8 0.08 0.08 0.08 91 1011.1
20260904073352 16 157 1.6 4.8 0.08 0.08 0.08 91 1011.0
20260904073248 16 233 1.6 4.8 0.08 0.08 0.08 91 1011.0
20260904073207 16 165 1.6 4.8 0.08 0.08 0.08 91 1011.1
20260904073146 16 165 1.6 4.8 0.08 0.08 0.08 91 1011.1
20260904073045 16 126 1.6 4.8 0.08 0.08 0.08 91 1011.0
20260904072946 16 125 1.6 4.8 0.08 0.08 0.08 91 1011.0
20260904072845 16 139 1.6 4.8 0.08 0.08 0.08 91 1011.0
20260904072744 16 142 1.6 4.8 0.05 0.05 0.08 91 1011.0
20260904072700 16 158 1.6 4.8 0.05 0.05 0.05 91 1010.9
20260904072644 16 149 1.6 4.8 0.05 0.05 0.05 91 1010.9
20260904072544 16 158 1.6 4.8 0.05 0.05 0.05 91 1011.0
20260904072441 16 104 1.6 6.4 0.05 0.05 0.05 91 1011.0
20260904072339 16 146 1.6 6.4 0.05 0.05 0.05 91 1010.9
20260904072240 16 155 1.6 6.4 0.05 0.05 0.05 91 1011.0
20260904072138 16 127 1.6 6.4 0.05 0.05 0.05 91 1010.9
20260904072038 16 127 1.6 6.4 0.05 0.05 0.05 91 1010.9
20260904071936 16 155 3.2 6.4 0.05 0.05 0.05 91 1010.9
20260904071833 16 156 3.2 6.4 0.05 0.05 0.05 91 1010.9
20260904071730 16 117 1.6 6.4 0.05 0.05 0.05 91 1010.9
20260904071627 16 148 1.6 6.4 0.05 0.05 0.05 91 1011.0
20260904071528 16 143 1.6 4.8 0.05 0.05 0.05 91 1011.0
20260904071428 16 107 1.6 4.8 0.05 0.05 0.05 91 1011.0
20260904071327 16 131 1.6 4.8 0.03 0.03 0.05 91 1011.0
20260904071223 16 123 1.6 4.8 0.03 0.03 0.03 91 1011.0
20260904071143 16 141 1.6 4.8 0.03 0.03 0.03 91 1011.1
20260904071124 16 126 1.6 4.8 0.03 0.03 0.03 91 1011.1
20260904071023 16 204 1.6 4.8 0.03 0.03 0.03 91 1011.1
20260904070924 16 148 1.6 4.8 0.03 0.03 0.03 91 1011.1
20260904070825 16 129 1.6 4.8 0.03 0.03 0.03 91 1011.1
20260904070721 16 238 1.6 8.0 0.03 0.03 0.03 91 1011.1
20260904070652 16 238 1.6 8.0 0.03 0.03 0.03 91 1011.1
20260904070619 16 238 1.6 8.0 0.03 0.03 0.03 91 1011.1
20260904070520 16 238 1.6 8.0 0.03 0.03 0.03 91 1011.2
20260904070418 16 211 1.6 8.0 0.03 0.03 0.03 91 1011.2
20260904070315 16 197 3.2 8.0 0.03 0.03 0.03 91 1011.2
20260904070210 16 197 3.2 11.3 0.03 0.03 0.03 91 1011.2
20260904070139 16 215 3.2 11.3 0.00 0.00 0.00 91 1011.2
20260904070109 16 188 3.2 11.3 0.00 0.00 0.00 91 1011.1
20260904070010 16 221 3.2 11.3 0.00 0.00 0.00 91 1011.2
20260904065910 16 203 3.2 11.3 0.00 0.00 0.00 90 1011.2
20260904065809 17 250 3.2 11.3 0.00 0.00 0.00 90 1011.2
20260904065704 17 242 3.2 11.3 0.00 0.00 0.00 88 1011.2
20260904065639 17 195 3.2 11.3 0.00 0.00 0.00 88 1011.2
20260904065603 17 195 4.8 11.3 0.00 0.00 0.00 88 1011.2
20260904065503 17 236 4.8 12.9 0.00 0.00 0.00 87 1011.2
20260904065401 17 229 4.8 12.9 0.00 0.00 0.00 87 1011.2
20260904065301 17 219 4.8 12.9 0.00 0.00 0.00 87 1011.2
20260904065158 17 239 4.8 12.9 0.00 0.00 0.00 87 1011.2
20260904065140 17 240 4.8 12.9 0.00 0.00 0.00 87 1011.2
20260904065056 17 239 6.4 12.9 0.00 0.00 0.00 87 1011.2
20260904064956 17 168 6.4 12.9 0.00 0.00 0.00 87 1011.2
20260904064856 17 231 4.8 12.9 0.00 0.00 0.00 86 1011.2
20260904064755 17 232 4.8 12.9 0.00 0.00 0.00 86 1011.2
20260904064650 17 246 4.8 12.9 0.00 0.00 0.00 86 1011.2
20260904064637 17 235 4.8 12.9 0.00 0.00 0.00 86 1011.2
20260904064550 17 240 4.8 12.9 0.00 0.00 0.00 86 1011.1
20260904064450 17 231 4.8 11.3 0.00 0.00 0.00 85 1011.2
20260904064350 17 238 4.8 11.3 0.00 0.00 0.00 85 1011.1
20260904064248 17 250 3.2 9.7 0.00 0.00 0.00 85 1011.2
20260904064148 17 225 3.2 9.7 0.00 0.00 0.00 85 1011.1
20260904064137 17 231 3.2 9.7 0.00 0.00 0.00 85 1011.1
20260904064044 17 235 3.2 9.7 0.00 0.00 0.00 85 1011.1
20260904063944 17 226 3.2 9.7 0.00 0.00 0.00 85 1011.1
20260904063844 17 210 4.8 9.7 0.00 0.00 0.00 84 1011.1
20260904063741 17 248 4.8 9.7 0.00 0.00 0.00 84 1011.1
20260904063643 17 232 4.8 9.7 0.00 0.00 0.00 84 1011.1
20260904063637 17 222 4.8 9.7 0.00 0.00 0.00 84 1011.1
20260904063535 17 231 4.8 9.7 0.00 0.00 0.00 84 1011.1
20260904063436 17 253 4.8 12.9 0.00 0.00 0.00 84 1011.1
20260904063336 17 233 4.8 12.9 0.00 0.00 0.00 84 1011.1
20260904063233 17 217 6.4 12.9 0.00 0.00 0.00 84 1011.0
20260904063136 17 235 6.4 12.9 0.00 0.00 0.00 84 1011.0
20260904063126 17 223 6.4 12.9 0.00 0.00 0.00 84 1011.0
20260904063025 17 238 6.4 12.9 0.00 0.00 0.00 84 1011.0
20260904062926 17 235 6.4 12.9 0.00 0.00 0.00 84 1011.1
20260904062826 17 266 4.8 12.9 0.00 0.00 0.00 84 1011.0
20260904062726 17 245 4.8 12.9 0.00 0.00 0.00 83 1011.0
20260904062636 17 245 4.8 12.9 0.00 0.00 0.00 83 1011.0
20260904062620 17 248 4.8 12.9 0.00 0.00 0.00 83 1011.0
20260904062520 17 229 4.8 12.9 0.00 0.00 0.00 83 1011.0
20260904062420 18 245 4.8 12.9 0.00 0.00 0.00 83 1011.0
20260904062320 18 240 3.2 12.9 0.00 0.00 0.00 83 1011.0
20260904062221 18 245 3.2 9.7 0.00 0.00 0.00 83 1011.0
20260904062136 18 240 3.2 9.7 0.00 0.00 0.00 83 1011.0
20260904062116 18 250 3.2 9.7 0.00 0.00 0.00 83 1011.0
20260904062016 18 258 3.2 9.7 0.00 0.00 0.00 83 1011.0
20260904061916 18 238 3.2 9.7 0.00 0.00 0.00 83 1011.0
20260904061908 18 243 3.2 9.7 0.00 0.00 0.00 82 1011.1
20260904061816 18 225 3.2 9.7 0.00 0.00 0.00 83 1011.0
20260904061759 18 252 3.2 9.7 0.00 0.00 0.00 82 1011.1
20260904061607 18 218 3.2 9.7 0.00 0.00 0.00 82 1011.1
20260904061508 18 236 4.8 9.7 0.00 0.00 0.00 82 1011.0
20260904061407 18 276 4.8 14.5 0.00 0.00 0.00 82 1011.1
20260904061308 18 242 4.8 14.5 0.00 0.00 0.00 82 1011.0
20260904061205 18 236 4.8 14.5 0.00 0.00 0.00 82 1011.0
20260904061134 18 215 4.8 14.5 0.00 0.00 0.00 82 1011.0
20260904061057 18 274 4.8 14.5 0.00 0.00 0.00 82 1011.0
20260904060957 18 236 4.8 14.5 0.00 0.00 0.00 82 1011.0
20260904060856 18 233 4.8 14.5 0.00 0.00 0.00 82 1011.0
20260904060757 18 236 4.8 14.5 0.00 0.00 0.00 82 1011.0
20260904060656 18 229 3.2 14.5 0.00 0.00 0.00 82 1011.0
20260904060635 18 245 3.2 14.5 0.00 0.00 0.00 82 1011.0
20260904060549 18 210 3.2 14.5 0.00 0.00 0.00 82 1010.9
20260904060449 18 221 3.2 14.5 0.00 0.00 0.00 82 1010.9
20260904060349 18 231 3.2 9.7 0.00 0.00 0.00 82 1011.0
20260904060249 18 193 3.2 9.7 0.00 0.00 0.00 82 1010.9
20260904060148 18 229 3.2 8.0 0.00 0.00 0.00 82 1011.0
20260904060134 18 239 3.2 8.0 0.00 0.00 0.00 82 1011.0
20260904060119 18 212 3.2 8.0 0.00 0.00 0.00 82 1010.9
20260904060045 18 201 3.2 6.4 0.00 0.00 0.00 82 1010.9
20260904060004 18 148 3.2 6.4 0.00 0.00 0.00 82 1010.9
20260904055844 18 212 3.2 6.4 0.00 0.00 0.00 82 1010.9
20260904055750 18 212 3.2 8.0 0.00 0.00 0.00 82 1010.9
20260904055741 18 212 3.2 8.0 0.00 0.00 0.00 82 1010.9
20260904055535 18 215 3.2 8.0 0.00 0.00 0.00 82 1010.9
20260904055435 18 203 3.2 9.7 0.00 0.00 0.00 82 1011.0
20260904055333 18 211 4.8 9.7 0.00 0.00 0.00 82 1010.9
20260904055233 18 231 4.8 11.3 0.00 0.00 0.00 82 1010.9
20260904055133 18 228 4.8 11.3 0.00 0.00 0.00 82 1011.0
20260904055028 18 218 4.8 11.3 0.00 0.00 0.00 81 1010.9
20260904054926 18 205 4.8 11.3 0.00 0.00 0.00 81 1011.0
20260904054827 18 242 3.2 11.3 0.00 0.00 0.00 81 1011.0
20260904054727 18 236 4.8 11.3 0.00 0.00 0.00 81 1010.9
20260904054643 18 239 4.8 11.3 0.00 0.00 0.00 81 1010.9
20260904054526 18 226 4.8 11.3 0.00 0.00 0.00 81 1010.9
20260904054425 18 134 4.8 12.9 0.00 0.00 0.00 81 1011.0
20260904054323 18 219 4.8 16.1 0.00 0.00 0.00 81 1011.0
20260904054223 18 243 4.8 16.1 0.00 0.00 0.00 81 1011.0
20260904054121 18 233 4.8 16.1 0.00 0.00 0.00 81 1011.0
20260904054015 18 246 4.8 16.1 0.00 0.00 0.00 81 1011.0
20260904053915 18 255 6.4 16.1 0.00 0.00 0.00 81 1011.0
20260904053821 18 262 6.4 16.1 0.00 0.00 0.00 81 1011.0
20260904053715 18 242 4.8 16.1 0.00 0.00 0.00 81 1011.1
20260904053616 18 179 6.4 16.1 0.00 0.00 0.00 80 1011.0
20260904053509 18 238 6.4 16.1 0.00 0.00 0.00 80 1011.0
20260904053409 18 236 4.8 12.9 0.00 0.00 0.00 80 1011.1
20260904053309 18 250 4.8 12.9 0.00 0.00 0.00 80 1011.1
20260904053208 18 191 4.8 12.9 0.00 0.00 0.00 80 1011.1
20260904053109 18 245 4.8 12.9 0.00 0.00 0.00 80 1011.1
20260904053006 18 226 3.2 12.9 0.00 0.00 0.00 80 1011.1
20260904052903 18 210 3.2 12.9 0.00 0.00 0.00 80 1011.1
20260904052802 18 217 3.2 12.9 0.00 0.00 0.00 80 1011.1
20260904052703 18 228 3.2 12.9 0.00 0.00 0.00 80 1011.1
20260904052604 18 221 3.2 12.9 0.00 0.00 0.00 80 1011.1
20260904052457 18 240 3.2 9.7 0.00 0.00 0.00 80 1011.1
20260904052357 18 248 3.2 9.7 0.00 0.00 0.00 80 1011.1
20260904052257 18 235 3.2 9.7 0.00 0.00 0.00 80 1011.1
20260904052157 18 233 3.2 9.7 0.00 0.00 0.00 81 1011.1
20260904052057 18 158 3.2 6.4 0.00 0.00 0.00 81 1011.1
20260904051956 18 152 3.2 6.4 0.00 0.00 0.00 81 1011.1
20260904051855 18 143 3.2 8.0 0.00 0.00 0.00 81 1011.1
20260904051755 18 224 3.2 8.0 0.00 0.00 0.00 81 1011.1
20260904051653 18 224 3.2 8.0 0.00 0.00 0.00 81 1011.1
20260904051550 18 154 3.2 8.0 0.00 0.00 0.00 81 1011.1
20260904051451 18 232 3.2 8.0 0.00 0.00 0.00 81 1011.1
20260904051349 18 242 3.2 8.0 0.00 0.00 0.00 81 1011.1
20260904051249 18 230 3.2 9.7 0.00 0.00 0.00 81 1011.1
20260904051148 18 238 3.2 9.7 0.00 0.00 0.00 80 1011.1
20260904051046 18 224 3.2 9.7 0.00 0.00 0.00 80 1011.1
20260904050941 18 235 3.2 9.7 0.00 0.00 0.00 80 1011.1
20260904050842 18 187 3.2 9.7 0.00 0.00 0.00 80 1011.2
20260904050759 18 232 4.8 11.3 0.00 0.00 0.00 80 1011.1
20260904050742 18 233 3.2 9.7 0.00 0.00 0.00 80 1011.1
20260904050655 18 232 3.2 11.3 0.00 0.00 0.00 80 1011.2
20260904050644 18 232 4.8 11.3 0.00 0.00 0.00 80 1011.1
20260904050435 18 214 4.8 11.3 0.00 0.00 0.00 80 1011.1
20260904050333 18 231 4.8 11.3 0.00 0.00 0.00 80 1011.1
20260904050320 18 219 4.8 11.3 0.00 0.00 0.00 80 1011.1
20260904050232 18 210 4.8 11.3 0.00 0.00 0.00 80 1011.1
20260904050203 18 223 4.8 11.3 0.00 0.00 0.00 80 1011.1
20260904050033 18 219 4.8 11.3 0.00 0.00 0.00 80 1011.1
20260904045929 18 190 4.8 11.3 0.00 0.00 0.00 80 1011.1
20260904045827 18 233 4.8 11.3 0.00 0.00 0.00 80 1011.0
20260904045727 18 221 4.8 11.3 0.00 0.00 0.00 80 1011.0
20260904045628 18 230 4.8 14.5 0.00 0.00 0.00 80 1011.0
20260904045538 18 243 4.8 14.5 0.00 0.00 0.00 80 1010.9
20260904045527 18 222 4.8 14.5 0.00 0.00 0.00 80 1010.9
20260904045421 19 242 4.8 14.5 0.00 0.00 0.00 80 1010.9
20260904045321 19 233 4.8 14.5 0.00 0.00 0.00 80 1010.9
20260904045221 19 236 4.8 14.5 0.00 0.00 0.00 79 1010.8
20260904045121 19 217 4.8 14.5 0.00 0.00 0.00 79 1010.9
20260904045037 19 232 3.2 14.5 0.00 0.00 0.00 79 1010.8
20260904045021 19 231 3.2 14.5 0.00 0.00 0.00 79 1010.8
20260904044915 19 232 3.2 14.5 0.00 0.00 0.00 79 1010.9
20260904044819 19 235 3.2 14.5 0.00 0.00 0.00 79 1010.9
20260904044715 19 216 3.2 14.5 0.00 0.00 0.00 79 1010.8
20260904044615 19 232 1.6 8.0 0.00 0.00 0.00 79 1010.9
20260904044537 19 165 1.6 8.0 0.00 0.00 0.00 79 1010.9
20260904044514 19 215 1.6 8.0 0.00 0.00 0.00 79 1010.9
20260904044411 19 142 1.6 6.4 0.00 0.00 0.00 79 1010.9
20260904044312 19 228 1.6 6.4 0.00 0.00 0.00 79 1010.9
20260904044211 19 246 1.6 6.4 0.00 0.00 0.00 80 1010.8
20260904044111 19 235 1.6 6.4 0.00 0.00 0.00 79 1010.9
20260904044035 19 235 1.6 6.4 0.00 0.00 0.00 79 1010.9
20260904044009 19 242 1.6 6.4 0.00 0.00 0.00 79 1010.9
20260904043908 19 240 1.6 8.0 0.00 0.00 0.00 79 1010.9
20260904043807 19 238 1.6 8.0 0.00 0.00 0.00 79 1010.9
20260904043707 19 233 1.6 8.0 0.00 0.00 0.00 79 1010.9
20260904043605 19 250 1.6 8.0 0.00 0.00 0.00 79 1011.0
20260904043533 19 231 1.6 8.0 0.00 0.00 0.00 79 1011.0
20260904043502 19 231 1.6 8.0 0.00 0.00 0.00 79 1010.9
20260904043359 19 232 1.6 8.0 0.00 0.00 0.00 79 1011.0
20260904043257 19 238 1.6 8.0 0.00 0.00 0.00 79 1011.0
20260904043157 19 232 1.6 8.0 0.00 0.00 0.00 79 1011.0
20260904043056 19 248 1.6 9.7 0.00 0.00 0.00 79 1011.0
20260904043033 19 228 1.6 9.7 0.00 0.00 0.00 79 1011.0
20260904042956 19 269 1.6 9.7 0.00 0.00 0.00 79 1011.0
20260904042856 19 241 1.6 12.9 0.00 0.00 0.00 79 1011.0
20260904042755 19 225 3.2 12.9 0.00 0.00 0.00 79 1011.0
20260904042656 19 225 3.2 12.9 0.00 0.00 0.00 79 1011.0
20260904042533 19 225 3.2 12.9 0.00 0.00 0.00 79 1011.0
20260904042450 19 214 3.2 12.9 0.00 0.00 0.00 79 1011.0
20260904042345 19 193 3.2 12.9 0.00 0.00 0.00 79 1011.0
20260904042252 19 242 3.2 12.9 0.00 0.00 0.00 79 1011.0
20260904042245 19 250 3.2 12.9 0.00 0.00 0.00 79 1011.0
20260904042148 19 240 3.2 12.9 0.00 0.00 0.00 79 1011.0
20260904042139 19 228 3.2 12.9 0.00 0.00 0.00 79 1011.0
20260904041944 19 231 3.2 12.9 0.00 0.00 0.00 79 1011.0
20260904041843 19 250 1.6 9.7 0.00 0.00 0.00 79 1011.0
20260904041743 19 207 1.6 9.7 0.00 0.00 0.00 79 1011.0
20260904041644 19 226 1.6 4.8 0.00 0.00 0.00 79 1011.0
20260904041529 19 207 1.6 4.8 0.00 0.00 0.00 79 1011.0
20260904041439 19 232 1.6 4.8 0.00 0.00 0.00 79 1010.9
20260904041335 19 233 1.6 4.8 0.00 0.00 0.00 79 1011.0
20260904041232 19 231 1.6 4.8 0.00 0.00 0.00 79 1010.9
20260904041134 19 235 1.6 4.8 0.00 0.00 0.00 79 1010.9
20260904041035 19 238 0.0 4.8 0.00 0.00 0.00 79 1010.9
20260904041027 19 239 0.0 4.8 0.00 0.00 0.00 79 1010.9
20260904040933 19 231 0.0 4.8 0.00 0.00 0.00 80 1010.9
20260904040833 19 262 0.0 4.8 0.00 0.00 0.00 80 1010.9
20260904040752 19 242 0.0 1.6 0.00 0.00 0.00 80 1010.9
20260904040731 19 241 0.0 1.6 0.00 0.00 0.00 80 1010.9
20260904040644 19 241 0.0 1.6 0.00 0.00 0.00 80 1011.0
20260904040633 19 242 0.0 1.6 0.00 0.00 0.00 80 1010.9
20260904040426 19 242 0.0 1.6 0.00 0.00 0.00 80 1010.9
20260904040323 19 242 0.0 3.2 0.00 0.00 0.00 80 1010.9
20260904040221 19 242 0.0 6.4 0.00 0.00 0.00 80 1010.8
20260904040121 19 248 0.0 6.4 0.00 0.00 0.00 80 1010.9
20260904040028 19 246 0.0 6.4 0.00 0.00 0.00 80 1010.9
20260904040021 19 245 0.0 6.4 0.00 0.00 0.00 80 1010.9
20260904035921 19 246 0.0 6.4 0.00 0.00 0.00 80 1010.9
20260904035820 19 246 0.0 6.4 0.00 0.00 0.00 80 1010.9
20260904035719 19 246 0.0 6.4 0.00 0.00 0.00 80 1010.9
20260904035618 19 248 0.0 6.4 0.00 0.00 0.00 80 1010.9
20260904035516 19 246 0.0 6.4 0.00 0.00 0.00 80 1010.9
20260904035415 19 248 0.0 6.4 0.00 0.00 0.00 80 1010.9
20260904035309 19 231 0.0 4.8 0.00 0.00 0.00 80 1010.9
20260904035209 19 243 0.0 6.4 0.00 0.00 0.00 80 1010.9
20260904035108 19 243 0.0 6.4 0.00 0.00 0.00 80 1010.9
20260904035009 19 243 0.0 6.4 0.00 0.00 0.00 80 1010.9
20260904034908 19 243 0.0 6.4 0.00 0.00 0.00 80 1010.9
20260904034802 19 243 0.0 6.4 0.00 0.00 0.00 80 1011.0
20260904034703 19 243 0.0 6.4 0.00 0.00 0.00 80 1010.9
20260904034603 19 243 0.0 6.4 0.00 0.00 0.00 80 1010.9
20260904034504 19 243 0.0 6.4 0.00 0.00 0.00 80 1010.9
20260904034402 19 239 0.0 6.4 0.00 0.00 0.00 80 1010.9
20260904034259 19 241 0.0 6.4 0.00 0.00 0.00 80 1010.9
20260904034159 19 241 0.0 4.8 0.00 0.00 0.00 80 1010.9
20260904034059 19 242 0.0 4.8 0.00 0.00 0.00 80 1010.9
20260904034021 19 241 0.0 4.8 0.00 0.00 0.00 80 1010.9
20260904033959 19 242 0.0 4.8 0.00 0.00 0.00 80 1010.9
20260904033856 19 242 0.0 4.8 0.00 0.00 0.00 80 1010.9
20260904033753 19 235 0.0 6.4 0.00 0.00 0.00 80 1010.9
20260904033652 19 204 0.0 6.4 0.00 0.00 0.00 80 1010.9
20260904033521 19 204 1.6 6.4 0.00 0.00 0.00 80 1010.8
20260904033451 19 236 1.6 6.4 0.00 0.00 0.00 80 1010.9
20260904033350 19 236 1.6 6.4 0.00 0.00 0.00 80 1010.9
20260904033251 19 236 1.6 6.4 0.00 0.00 0.00 80 1010.9
20260904033148 19 236 1.6 6.4 0.00 0.00 0.00 80 1010.8
20260904033020 19 236 1.6 6.4 0.00 0.00 0.00 80 1010.8
20260904032947 19 236 1.6 6.4 0.00 0.00 0.00 80 1010.8
20260904032844 19 236 1.6 11.3 0.00 0.00 0.00 80 1010.8
20260904032740 19 239 1.6 11.3 0.00 0.00 0.00 80 1010.8
20260904032641 19 253 1.6 11.3 0.00 0.00 0.00 80 1010.8
20260904032541 19 235 1.6 11.3 0.00 0.00 0.00 80 1010.8
20260904032518 19 236 1.6 11.3 0.00 0.00 0.00 80 1010.8
20260904032440 19 239 1.6 11.3 0.00 0.00 0.00 80 1010.7
20260904032336 19 250 1.6 11.3 0.00 0.00 0.00 80 1010.7
20260904032231 19 250 1.6 11.3 0.00 0.00 0.00 80 1010.7
20260904032130 19 229 0.0 11.3 0.00 0.00 0.00 79 1010.7
20260904032031 19 232 0.0 11.3 0.00 0.00 0.00 79 1010.7
20260904032013 19 232 0.0 11.3 0.00 0.00 0.00 79 1010.6
20260904031931 19 240 0.0 11.3 0.00 0.00 0.00 79 1010.6
20260904031830 19 257 0.0 3.2 0.00 0.00 0.00 79 1010.6
20260904031726 19 243 0.0 4.8 0.00 0.00 0.00 79 1010.7
20260904031626 19 243 0.0 4.8 0.00 0.00 0.00 79 1010.6
20260904031525 19 245 1.6 6.4 0.00 0.00 0.00 79 1010.6
20260904031507 19 243 1.6 6.4 0.00 0.00 0.00 79 1010.5
20260904031425 19 243 1.6 6.4 0.00 0.00 0.00 79 1010.5
20260904031324 19 233 1.6 6.4 0.00 0.00 0.00 79 1010.5
20260904031223 19 239 1.6 6.4 0.00 0.00 0.00 79 1010.5
20260904031217 19 239 0.0 6.4 0.00 0.00 0.00 79 1010.5
20260904031126 19 239 1.6 6.4 0.00 0.00 0.00 79 1010.5
20260904031023 19 239 1.6 6.4 0.00 0.00 0.00 79 1010.5
20260904030921 19 231 0.0 6.4 0.00 0.00 0.00 79 1010.5
20260904030818 19 231 0.0 6.4 0.00 0.00 0.00 79 1010.5
20260904030723 19 233 0.0 3.2 0.00 0.00 0.00 79 1010.5
20260904030715 19 245 0.0 6.4 0.00 0.00 0.00 79 1010.5
20260904030613 19 217 0.0 6.4 0.00 0.00 0.00 80 1010.5
20260904030602 19 233 0.0 3.2 0.00 0.00 0.00 80 1010.5
20260904030413 19 233 0.0 4.8 0.00 0.00 0.00 79 1010.5
20260904030312 19 233 1.6 6.4 0.00 0.00 0.00 79 1010.4
20260904030216 19 232 1.6 14.5 0.00 0.00 0.00 79 1010.4
20260904030209 19 233 1.6 14.5 0.00 0.00 0.00 79 1010.5
20260904030107 19 233 1.6 14.5 0.00 0.00 0.00 79 1010.4
20260904030059 19 232 1.6 14.5 0.00 0.00 0.00 79 1010.4
20260904025907 19 232 1.6 14.5 0.00 0.00 0.00 79 1010.4
20260904025810 19 232 1.6 14.5 0.00 0.00 0.00 79 1010.4
20260904025705 19 259 1.6 14.5 0.00 0.00 0.00 79 1010.4
20260904025701 19 233 1.6 14.5 0.00 0.00 0.00 79 1010.4
20260904025600 19 232 1.6 14.5 0.00 0.00 0.00 79 1010.4
20260904025550 19 179 1.6 14.5 0.00 0.00 0.00 79 1010.4
20260904025401 19 219 1.6 14.5 0.00 0.00 0.00 79 1010.4
20260904025300 19 280 1.6 14.5 0.00 0.00 0.00 79 1010.4
20260904025158 19 235 1.6 17.7 0.00 0.00 0.00 79 1010.4
20260904025055 19 235 3.2 17.7 0.00 0.00 0.00 79 1010.4
20260904024954 19 226 3.2 17.7 0.00 0.00 0.00 79 1010.4
20260904024936 19 212 3.2 17.7 0.00 0.00 0.00 79 1010.4
20260904024855 19 212 3.2 17.7 0.00 0.00 0.00 79 1010.4
20260904024754 19 233 3.2 17.7 0.00 0.00 0.00 79 1010.4
20260904024655 19 245 3.2 17.7 0.00 0.00 0.00 79 1010.5
20260904024553 19 253 3.2 17.7 0.00 0.00 0.00 79 1010.5
20260904024453 19 290 3.2 17.7 0.00 0.00 0.00 79 1010.5
20260904024430 19 311 3.2 19.3 0.00 0.00 0.00 79 1010.5
20260904024352 20 232 3.2 19.3 0.00 0.00 0.00 79 1010.5
20260904024248 20 240 3.2 19.3 0.00 0.00 0.00 80 1010.5
20260904024144 20 250 3.2 19.3 0.00 0.00 0.00 80 1010.4
20260904024043 20 229 3.2 19.3 0.00 0.00 0.00 80 1010.5
20260904023943 20 224 3.2 19.3 0.00 0.00 0.00 80 1010.5
20260904023924 20 284 3.2 19.3 0.00 0.00 0.00 80 1010.5
20260904023842 20 281 3.2 19.3 0.00 0.00 0.00 80 1010.6
20260904023742 20 248 3.2 19.3 0.00 0.00 0.00 80 1010.5
20260904023647 20 234 3.2 11.3 0.00 0.00 0.00 79 1010.6
20260904023634 20 258 3.2 19.3 0.00 0.00 0.00 80 1010.5
20260904023541 20 257 3.2 19.3 0.00 0.00 0.00 79 1010.5
20260904023532 20 193 3.2 11.3 0.00 0.00 0.00 79 1010.6
20260904023333 20 243 3.2 11.3 0.00 0.00 0.00 79 1010.6
20260904023232 20 276 3.2 16.1 0.00 0.00 0.00 79 1010.6
20260904023147 20 214 4.8 16.1 0.00 0.00 0.00 79 1010.6
20260904023133 20 276 3.2 16.1 0.00 0.00 0.00 79 1010.6
20260904023041 20 273 3.2 16.1 0.00 0.00 0.00 79 1010.6
20260904023033 20 219 4.8 16.1 0.00 0.00 0.00 79 1010.6
20260904022829 20 228 3.2 16.1 0.00 0.00 0.00 79 1010.6
20260904022727 20 335 3.2 16.1 0.00 0.00 0.00 79 1010.6
20260904022626 20 280 3.2 16.1 0.00 0.00 0.00 79 1010.6
20260904022521 20 239 3.2 16.1 0.00 0.00 0.00 79 1010.5
20260904022421 20 298 4.8 19.3 0.00 0.00 0.00 79 1010.6
20260904022321 20 231 4.8 19.3 0.00 0.00 0.00 79 1010.5
20260904022220 20 223 3.2 19.3 0.00 0.00 0.00 79 1010.5
20260904022115 20 302 3.2 19.3 0.00 0.00 0.00 78 1010.5
20260904022015 20 253 3.2 19.3 0.00 0.00 0.00 78 1010.5
20260904021923 20 226 3.2 19.3 0.00 0.00 0.00 78 1010.5
20260904021915 20 257 3.2 19.3 0.00 0.00 0.00 78 1010.5
20260904021815 20 284 3.2 19.3 0.00 0.00 0.00 78 1010.6
20260904021714 20 219 3.2 19.3 0.00 0.00 0.00 78 1010.6
20260904021611 20 224 3.2 19.3 0.00 0.00 0.00 78 1010.5
20260904021509 20 255 3.2 19.3 0.00 0.00 0.00 78 1010.6
20260904021422 20 302 3.2 12.9 0.00 0.00 0.00 77 1010.6
20260904021410 20 262 3.2 12.9 0.00 0.00 0.00 77 1010.5
20260904021310 20 256 3.2 12.9 0.00 0.00 0.00 77 1010.5
20260904021209 20 159 3.2 12.9 0.00 0.00 0.00 77 1010.6
20260904021103 20 250 1.6 12.9 0.00 0.00 0.00 77 1010.6
20260904021004 20 246 1.6 11.3 0.00 0.00 0.00 77 1010.6
20260904020926 20 274 1.6 8.0 0.00 0.00 0.00 77 1010.6
20260904020903 20 225 1.6 8.0 0.00 0.00 0.00 77 1010.6
20260904020803 20 170 1.6 8.0 0.00 0.00 0.00 77 1010.6
20260904020703 20 318 1.6 8.0 0.00 0.00 0.00 77 1010.6
20260904020559 20 282 1.6 8.0 0.00 0.00 0.00 76 1010.6
20260904020457 20 285 1.6 12.9 0.00 0.00 0.00 76 1010.6
20260904020424 20 284 1.6 12.9 0.00 0.00 0.00 76 1010.6
20260904020357 20 284 1.6 12.9 0.00 0.00 0.00 76 1010.7
20260904020257 20 270 1.6 12.9 0.00 0.00 0.00 76 1010.7
20260904020156 20 277 1.6 12.9 0.00 0.00 0.00 76 1010.7
20260904020055 20 259 3.2 12.9 0.00 0.00 0.00 76 1010.7
20260904015954 20 258 3.2 12.9 0.00 0.00 0.00 76 1010.7
20260904015919 20 259 3.2 12.9 0.00 0.00 0.00 75 1010.7
20260904015852 20 259 3.2 12.9 0.00 0.00 0.00 75 1010.7
20260904015753 20 273 3.2 12.9 0.00 0.00 0.00 75 1010.7
20260904015650 20 228 3.2 12.9 0.00 0.00 0.00 75 1010.7
20260904015549 20 284 3.2 12.9 0.00 0.00 0.00 75 1010.8
20260904015446 20 233 3.2 11.3 0.00 0.00 0.00 75 1010.8
20260904015419 20 226 3.2 11.3 0.00 0.00 0.00 75 1010.8
20260904015413 20 252 3.2 16.1 0.00 0.00 0.00 74 1010.8
20260904015346 20 232 3.2 11.3 0.00 0.00 0.00 75 1010.8
20260904015256 20 271 3.2 11.3 0.00 0.00 0.00 75 1010.8
20260904015143 20 282 3.2 11.3 0.00 0.00 0.00 74 1010.8
20260904015037 20 312 3.2 11.3 0.00 0.00 0.00 74 1010.8
20260904015025 20 225 3.2 16.1 0.00 0.00 0.00 74 1010.8
20260904014837 20 246 3.2 16.1 0.00 0.00 0.00 74 1010.8
20260904014737 20 270 3.2 16.1 0.00 0.00 0.00 74 1010.7
20260904014634 21 245 3.2 16.1 0.00 0.00 0.00 74 1010.7
20260904014536 21 305 3.2 16.1 0.00 0.00 0.00 74 1010.7
20260904014417 21 253 3.2 16.1 0.00 0.00 0.00 74 1010.7
20260904014331 21 233 3.2 16.1 0.00 0.00 0.00 74 1010.7
20260904014231 21 243 3.2 16.1 0.00 0.00 0.00 74 1010.7
20260904014129 21 205 1.6 16.1 0.00 0.00 0.00 74 1010.7
20260904014023 21 296 1.6 16.1 0.00 0.00 0.00 74 1010.7
20260904013924 21 242 1.6 12.9 0.00 0.00 0.00 74 1010.7
20260904013916 21 239 1.6 12.9 0.00 0.00 0.00 74 1010.7
20260904013823 21 239 1.6 12.9 0.00 0.00 0.00 74 1010.7
20260904013722 21 242 1.6 12.9 0.00 0.00 0.00 74 1010.6
20260904013625 21 217 1.6 12.9 0.00 0.00 0.00 74 1010.7
20260904013519 21 232 1.6 12.9 0.00 0.00 0.00 74 1010.8
20260904013418 21 248 1.6 12.9 0.00 0.00 0.00 74 1010.7
20260904013317 21 290 1.6 11.3 0.00 0.00 0.00 74 1010.6
20260904013218 21 311 1.6 11.3 0.00 0.00 0.00 74 1010.7
20260904013115 21 335 1.6 11.3 0.00 0.00 0.00 74 1010.7
20260904013008 21 312 1.6 11.3 0.00 0.00 0.00 74 1010.7
20260904012916 21 311 1.6 11.3 0.00 0.00 0.00 74 1010.7
20260904012909 21 312 3.2 11.3 0.00 0.00 0.00 74 1010.7
20260904012807 21 311 3.2 12.9 0.00 0.00 0.00 74 1010.8
20260904012708 21 304 3.2 12.9 0.00 0.00 0.00 74 1010.8
20260904012607 21 266 3.2 12.9 0.00 0.00 0.00 74 1010.8
20260904012503 21 235 3.2 12.9 0.00 0.00 0.00 74 1010.8
20260904012417 21 243 3.2 12.9 0.00 0.00 0.00 74 1010.8
20260904012403 21 231 3.2 12.9 0.00 0.00 0.00 74 1010.8
20260904012306 21 239 3.2 12.9 0.00 0.00 0.00 74 1010.8
20260904012204 21 273 3.2 12.9 0.00 0.00 0.00 74 1010.8
20260904012100 21 273 3.2 12.9 0.00 0.00 0.00 73 1010.9
20260904011927 21 273 3.2 12.9 0.00 0.00 0.00 73 1010.9
20260904011853 21 239 3.2 12.9 0.00 0.00 0.00 73 1010.9
20260904011752 21 245 3.2 12.9 0.00 0.00 0.00 73 1010.8
20260904011653 21 235 3.2 12.9 0.00 0.00 0.00 73 1010.9
20260904011552 21 269 3.2 12.9 0.00 0.00 0.00 73 1010.9
20260904011450 21 250 1.6 9.7 0.00 0.00 0.00 73 1010.9
20260904011422 21 240 1.6 9.7 0.00 0.00 0.00 73 1010.9
20260904011349 21 257 1.6 9.7 0.00 0.00 0.00 73 1010.9
20260904011249 21 245 1.6 9.7 0.00 0.00 0.00 73 1010.9
20260904011147 21 301 1.6 9.7 0.00 0.00 0.00 73 1010.9
20260904011045 21 253 3.2 16.1 0.00 0.00 0.00 73 1010.9
20260904010941 21 240 3.2 16.1 0.00 0.00 0.00 73 1010.9
20260904010909 21 321 3.2 16.1 0.00 0.00 0.00 73 1010.9
20260904010838 21 350 3.2 16.1 0.00 0.00 0.00 72 1010.9
20260904010739 21 311 3.2 16.1 0.00 0.00 0.00 72 1010.9
20260904010638 21 233 3.2 16.1 0.00 0.00 0.00 72 1010.9
20260904010536 21 240 3.2 16.1 0.00 0.00 0.00 72 1010.9
20260904010410 21 240 3.2 16.1 0.00 0.00 0.00 72 1010.9
20260904010331 21 241 3.2 16.1 0.00 0.00 0.00 72 1010.9
20260904010232 21 264 3.2 16.1 0.00 0.00 0.00 72 1010.9
20260904010132 21 245 3.2 16.1 0.00 0.00 0.00 72 1011.0
20260904010030 21 256 3.2 8.0 0.00 0.00 0.00 71 1011.0
20260904005929 21 339 3.2 8.0 0.00 0.00 0.00 72 1011.0
20260904005911 21 319 3.2 8.0 0.00 0.00 0.00 72 1011.0
20260904005827 21 294 3.2 8.0 0.00 0.00 0.00 72 1011.0
20260904005727 21 256 3.2 8.0 0.00 0.00 0.00 71 1011.0
20260904005626 21 260 1.6 8.0 0.00 0.00 0.00 71 1011.0
20260904005523 21 238 1.6 8.0 0.00 0.00 0.00 71 1011.0
20260904005410 21 301 3.2 8.0 0.00 0.00 0.00 71 1011.0
20260904005318 21 294 3.2 11.3 0.00 0.00 0.00 71 1011.0
20260904005217 21 310 3.2 11.3 0.00 0.00 0.00 71 1011.0
20260904005132 21 203 3.2 11.3 0.00 0.00 0.00 70 1011.0
20260904005117 21 184 3.2 11.3 0.00 0.00 0.00 71 1011.0
20260904005025 21 229 3.2 11.3 0.00 0.00 0.00 70 1011.0
20260904005015 21 203 3.2 11.3 0.00 0.00 0.00 70 1011.0
20260904004808 21 207 3.2 11.3 0.00 0.00 0.00 70 1011.0
20260904004710 21 277 3.2 11.3 0.00 0.00 0.00 70 1010.9
20260904004607 22 253 1.6 11.3 0.00 0.00 0.00 70 1011.0
20260904004507 22 180 1.6 11.3 0.00 0.00 0.00 70 1011.0
20260904004409 22 276 1.6 11.3 0.00 0.00 0.00 70 1011.0
20260904004403 22 275 1.6 11.3 0.00 0.00 0.00 70 1011.0
20260904004301 22 277 1.6 9.7 0.00 0.00 0.00 70 1011.0
20260904004201 22 115 1.6 6.4 0.00 0.00 0.00 70 1011.0
20260904004132 22 310 1.6 6.4 0.00 0.00 0.00 70 1011.0
20260904004101 22 321 1.6 6.4 0.00 0.00 0.00 70 1011.0
20260904004020 22 177 1.6 6.4 0.00 0.00 0.00 70 1010.9
20260904003855 22 333 1.6 6.4 0.00 0.00 0.00 70 1011.0
20260904003758 22 233 1.6 6.4 0.00 0.00 0.00 70 1011.0
20260904003656 22 348 1.6 8.0 0.00 0.00 0.00 70 1011.0
20260904003555 22 260 1.6 8.0 0.00 0.00 0.00 70 1011.0
20260904003452 22 274 3.2 8.0 0.00 0.00 0.00 70 1011.0
20260904003412 22 273 3.2 9.7 0.00 0.00 0.00 70 1010.9
20260904003350 22 148 3.2 9.7 0.00 0.00 0.00 69 1010.9
20260904003247 22 328 3.2 9.7 0.00 0.00 0.00 69 1011.0
20260904003147 22 217 3.2 9.7 0.00 0.00 0.00 69 1010.9
20260904003047 22 150 3.2 9.7 0.00 0.00 0.00 69 1010.9
20260904002944 22 222 3.2 9.7 0.00 0.00 0.00 69 1011.0
20260904002909 22 207 3.2 9.7 0.00 0.00 0.00 69 1010.9
20260904002841 22 231 3.2 9.7 0.00 0.00 0.00 69 1010.9
20260904002740 22 253 1.6 9.7 0.00 0.00 0.00 69 1010.9
20260904002641 22 256 1.6 9.7 0.00 0.00 0.00 69 1010.8
20260904002624 22 274 1.6 9.7 0.00 0.00 0.00 68 1010.8
20260904002540 22 270 1.6 9.7 0.00 0.00 0.00 69 1010.8
20260904002520 22 224 1.6 9.7 0.00 0.00 0.00 68 1010.8
20260904002335 22 273 1.6 9.7 0.00 0.00 0.00 69 1010.8
20260904002236 22 136 1.6 9.7 0.00 0.00 0.00 69 1010.9
20260904002137 22 238 1.6 9.7 0.00 0.00 0.00 69 1010.9
20260904002035 22 305 1.6 9.7 0.00 0.00 0.00 69 1010.8
20260904001933 22 305 1.6 11.3 0.00 0.00 0.00 69 1010.8
20260904001909 22 304 1.6 11.3 0.00 0.00 0.00 69 1010.8
20260904001833 22 305 1.6 11.3 0.00 0.00 0.00 69 1010.8
20260904001733 22 280 1.6 11.3 0.00 0.00 0.00 68 1010.8
20260904001634 22 242 1.6 11.3 0.00 0.00 0.00 68 1010.8
20260904001531 22 288 1.6 11.3 0.00 0.00 0.00 68 1010.8
20260904001428 22 212 1.6 11.3 0.00 0.00 0.00 68 1010.8
20260904001407 22 290 1.6 11.3 0.00 0.00 0.00 68 1010.9
20260904001329 22 283 1.6 11.3 0.00 0.00 0.00 68 1010.9
20260904001228 22 283 1.6 11.3 0.00 0.00 0.00 68 1010.8
20260904001129 22 257 1.6 11.3 0.00 0.00 0.00 68 1010.9
20260904001028 22 300 1.6 12.9 0.00 0.00 0.00 68 1010.9
20260904000930 22 236 1.6 12.9 0.00 0.00 0.00 68 1010.9
20260904000919 22 197 3.2 14.5 0.00 0.00 0.00 68 1010.9
20260904000829 22 250 3.2 14.5 0.00 0.00 0.00 68 1010.9
20260904000727 22 250 3.2 14.5 0.00 0.00 0.00 67 1010.9
20260904000627 22 250 3.2 14.5 0.00 0.00 0.00 67 1010.9
20260904000526 22 250 3.2 14.5 0.00 0.00 0.00 67 1010.9
20260904000426 22 250 3.2 14.5 0.00 0.00 0.00 67 1010.9
20260904000410 22 233 3.2 14.5 0.00 0.00 0.00 67 1011.0
20260904000327 22 238 3.2 14.5 0.00 0.00 0.00 66 1011.0
20260904000226 22 283 3.2 16.1 0.00 0.00 0.00 66 1011.0
20260904000126 23 297 3.2 16.1 0.00 0.00 0.00 66 1011.0
20260904000021 23 238 3.2 16.1 0.00 0.00 0.00 66 1010.9
20260903235920 23 274 3.2 16.1 0.00 0.00 0.00 66 1010.9
20260903235902 23 26 3.2 16.1 0.00 0.00 0.00 66 1010.9
20260903235821 23 325 3.2 16.1 0.00 0.00 0.00 67 1010.9
20260903235720 23 288 3.2 16.1 0.00 0.00 0.00 66 1010.9
20260903235617 23 325 3.2 16.1 0.00 0.00 0.00 67 1010.9
20260903235515 23 201 3.2 16.1 0.00 0.00 0.00 66 1010.9
20260903235415 23 239 3.2 16.1 0.00 0.00 0.00 66 1010.9
20260903235356 23 222 3.2 16.1 0.00 0.00 0.00 66 1010.9
20260903235315 23 326 3.2 16.1 0.00 0.00 0.00 66 1010.9
20260903235214 23 219 3.2 16.1 0.00 0.00 0.00 66 1011.0
20260903235110 23 252 3.2 16.1 0.00 0.00 0.00 66 1011.0
20260903235008 23 273 3.2 19.3 0.00 0.00 0.00 66 1010.9
20260903234909 23 232 3.2 19.3 0.00 0.00 0.00 66 1010.9
20260903234850 23 281 3.2 19.3 0.00 0.00 0.00 66 1010.9
20260903234809 23 136 3.2 19.3 0.00 0.00 0.00 66 1010.9
20260903234709 23 161 3.2 19.3 0.00 0.00 0.00 66 1011.0
20260903234602 23 317 3.2 19.3 0.00 0.00 0.00 66 1010.9
20260903234504 23 6 3.2 19.3 0.00 0.00 0.00 66 1010.9
20260903234403 23 293 3.2 19.3 0.00 0.00 0.00 66 1010.9
20260903234344 23 327 3.2 19.3 0.00 0.00 0.00 66 1010.9
20260903234302 23 218 3.2 19.3 0.00 0.00 0.00 66 1011.0
20260903234201 23 148 3.2 19.3 0.00 0.00 0.00 66 1011.0
20260903234059 23 214 3.2 19.3 0.00 0.00 0.00 66 1011.0
20260903233958 23 314 3.2 12.9 0.00 0.00 0.00 66 1011.0
20260903233858 23 8 3.2 9.7 0.00 0.00 0.00 66 1011.0
20260903233838 23 250 3.2 9.7 0.00 0.00 0.00 66 1011.0
20260903233759 23 266 3.2 11.3 0.00 0.00 0.00 66 1011.0
20260903233655 23 291 3.2 14.5 0.00 0.00 0.00 66 1011.0
20260903233602 23 259 4.8 16.1 0.00 0.00 0.00 65 1011.0
20260903233551 23 297 3.2 14.5 0.00 0.00 0.00 66 1011.0
20260903233451 23 248 4.8 14.5 0.00 0.00 0.00 66 1011.0
20260903233441 23 318 4.8 16.1 0.00 0.00 0.00 65 1011.0
20260903233251 23 233 4.8 16.1 0.00 0.00 0.00 65 1011.0
20260903233150 23 256 4.8 16.1 0.00 0.00 0.00 66 1011.0
20260903233053 23 200 4.8 16.1 0.00 0.00 0.00 65 1011.0
20260903233047 23 253 4.8 16.1 0.00 0.00 0.00 66 1011.0
20260903232946 23 273 4.8 16.1 0.00 0.00 0.00 65 1011.0
20260903232935 23 256 4.8 16.1 0.00 0.00 0.00 65 1011.0
20260903232745 23 288 4.8 16.1 0.00 0.00 0.00 65 1011.0
20260903232645 23 280 4.8 16.1 0.00 0.00 0.00 65 1011.0
20260903232544 23 277 3.2 17.7 0.00 0.00 0.00 65 1011.0
20260903232540 23 274 4.8 16.1 0.00 0.00 0.00 65 1011.0
20260903232438 23 281 3.2 17.7 0.00 0.00 0.00 65 1011.0
20260903232429 23 277 3.2 17.7 0.00 0.00 0.00 65 1011.0
20260903232239 23 231 4.8 17.7 0.00 0.00 0.00 65 1011.0
20260903232138 23 305 4.8 17.7 0.00 0.00 0.00 65 1011.1
20260903232035 23 287 4.8 17.7 0.00 0.00 0.00 65 1011.0
20260903231933 23 310 4.8 17.7 0.00 0.00 0.00 65 1011.0
20260903231832 23 321 4.8 17.7 0.00 0.00 0.00 64 1011.0
20260903231817 23 267 4.8 17.7 0.00 0.00 0.00 64 1011.0
20260903231733 23 308 4.8 17.7 0.00 0.00 0.00 64 1011.0
20260903231632 23 253 4.8 17.7 0.00 0.00 0.00 64 1011.1
20260903231530 23 236 4.8 17.7 0.00 0.00 0.00 64 1011.0
20260903231430 23 266 4.8 17.7 0.00 0.00 0.00 63 1011.0
20260903231331 23 291 4.8 17.7 0.00 0.00 0.00 63 1011.0
20260903231308 23 226 4.8 17.7 0.00 0.00 0.00 63 1011.1
20260903231229 24 248 4.8 17.7 0.00 0.00 0.00 63 1011.1
20260903231126 24 303 4.8 16.1 0.00 0.00 0.00 63 1011.1
20260903231022 24 290 4.8 16.1 0.00 0.00 0.00 63 1011.1
20260903230920 24 232 3.2 14.5 0.00 0.00 0.00 62 1011.1
20260903230821 24 277 4.8 14.5 0.00 0.00 0.00 62 1011.1
20260903230802 24 263 4.8 14.5 0.00 0.00 0.00 62 1011.1
20260903230721 24 256 4.8 14.5 0.00 0.00 0.00 63 1011.1
20260903230625 24 278 4.8 14.5 0.00 0.00 0.00 62 1011.1
20260903230516 24 253 3.2 14.5 0.00 0.00 0.00 62 1011.1
20260903230414 24 250 3.2 14.5 0.00 0.00 0.00 62 1011.1
20260903230315 24 278 4.8 14.5 0.00 0.00 0.00 61 1011.2
20260903230256 24 236 4.8 14.5 0.00 0.00 0.00 61 1011.2
20260903230215 24 283 4.8 14.5 0.00 0.00 0.00 61 1011.2
20260903230114 24 311 4.8 14.5 0.00 0.00 0.00 61 1011.2
20260903230011 25 269 3.2 14.5 0.00 0.00 0.00 62 1011.2
20260903225909 24 248 3.2 14.5 0.00 0.00 0.00 61 1011.2
20260903225809 24 250 4.8 14.5 0.00 0.00 0.00 61 1011.2
20260903225752 24 232 4.8 14.5 0.00 0.00 0.00 61 1011.2
20260903225708 24 208 4.8 19.3 0.00 0.00 0.00 62 1011.2
20260903225609 24 269 4.8 25.7 0.00 0.00 0.00 62 1011.2
20260903225508 24 243 4.8 25.7 0.00 0.00 0.00 62 1011.2
20260903225408 24 291 4.8 25.7 0.00 0.00 0.00 62 1011.2
20260903225306 24 271 4.8 25.7 0.00 0.00 0.00 62 1011.2
20260903225255 24 280 4.8 25.7 0.00 0.00 0.00 62 1011.2
20260903225203 24 255 4.8 25.7 0.00 0.00 0.00 62 1011.2
20260903225103 24 281 4.8 25.7 0.00 0.00 0.00 62 1011.2
20260903225002 24 266 4.8 25.7 0.00 0.00 0.00 62 1011.2
20260903224902 24 248 6.4 25.7 0.00 0.00 0.00 61 1011.2
20260903224806 24 235 6.4 25.7 0.00 0.00 0.00 60 1011.3
20260903224757 24 232 6.4 25.7 0.00 0.00 0.00 60 1011.3
20260903224702 24 229 4.8 25.7 0.00 0.00 0.00 61 1011.2
20260903224603 24 260 4.8 19.3 0.00 0.00 0.00 61 1011.3
20260903224503 24 250 4.8 19.3 0.00 0.00 0.00 61 1011.3
20260903224401 24 243 4.8 19.3 0.00 0.00 0.00 62 1011.3
20260903224301 24 240 6.4 19.3 0.00 0.00 0.00 62 1011.2
20260903224239 24 255 6.4 19.3 0.00 0.00 0.00 62 1011.2
20260903224201 24 276 6.4 19.3 0.00 0.00 0.00 62 1011.3
20260903224058 24 235 4.8 19.3 0.00 0.00 0.00 62 1011.3
20260903223959 24 256 4.8 19.3 0.00 0.00 0.00 62 1011.3
20260903223857 24 252 4.8 19.3 0.00 0.00 0.00 62 1011.2
20260903223756 24 266 4.8 17.7 0.00 0.00 0.00 63 1011.3
20260903223743 24 267 4.8 17.7 0.00 0.00 0.00 63 1011.3
20260903223657 24 207 4.8 17.7 0.00 0.00 0.00 63 1011.3
20260903223556 23 242 4.8 17.7 0.00 0.00 0.00 63 1011.4
20260903223456 23 211 4.8 17.7 0.00 0.00 0.00 63 1011.4
20260903223356 23 284 4.8 17.7 0.00 0.00 0.00 63 1011.4
20260903223252 23 281 6.4 17.7 0.00 0.00 0.00 63 1011.4
20260903223151 23 235 6.4 17.7 0.00 0.00 0.00 63 1011.5
20260903223050 23 273 6.4 17.7 0.00 0.00 0.00 64 1011.4
20260903223000 23 236 8.0 22.5 0.00 0.00 0.00 63 1011.5
20260903222951 23 255 8.0 17.7 0.00 0.00 0.00 63 1011.5
20260903222858 23 267 8.0 22.5 0.00 0.00 0.00 63 1011.5
20260903222849 23 266 8.0 22.5 0.00 0.00 0.00 63 1011.5
20260903222643 23 229 8.0 22.5 0.00 0.00 0.00 63 1011.5
20260903222542 23 223 8.0 22.5 0.00 0.00 0.00 63 1011.6
20260903222443 23 280 8.0 22.5 0.00 0.00 0.00 63 1011.5
20260903222342 23 243 8.0 22.5 0.00 0.00 0.00 63 1011.6
20260903222242 23 217 8.0 22.5 0.00 0.00 0.00 63 1011.6
20260903222138 23 249 6.4 22.5 0.00 0.00 0.00 63 1011.6
20260903222036 23 256 6.4 22.5 0.00 0.00 0.00 62 1011.5
20260903221937 23 243 6.4 22.5 0.00 0.00 0.00 62 1011.6
20260903221834 23 259 6.4 20.9 0.00 0.00 0.00 63 1011.6
20260903221738 23 274 6.4 20.9 0.00 0.00 0.00 63 1011.6
20260903221729 23 214 6.4 20.9 0.00 0.00 0.00 63 1011.6
20260903221629 23 240 6.4 20.9 0.00 0.00 0.00 63 1011.5
20260903221529 23 239 6.4 20.9 0.00 0.00 0.00 63 1011.5
20260903221429 23 274 6.4 20.9 0.00 0.00 0.00 63 1011.5
20260903221326 23 245 6.4 20.9 0.00 0.00 0.00 63 1011.6
20260903221237 23 243 6.4 20.9 0.00 0.00 0.00 63 1011.6
20260903221220 23 229 6.4 20.9 0.00 0.00 0.00 63 1011.6
20260903221124 23 296 6.4 20.9 0.00 0.00 0.00 63 1011.6
20260903221021 23 256 4.8 20.9 0.00 0.00 0.00 63 1011.7
20260903220920 23 231 6.4 20.9 0.00 0.00 0.00 62 1011.7
20260903220818 23 256 6.4 20.9 0.00 0.00 0.00 62 1011.7
20260903220739 23 235 4.8 20.9 0.00 0.00 0.00 62 1011.7
20260903220712 23 246 4.8 20.9 0.00 0.00 0.00 62 1011.7
20260903220613 24 262 4.8 14.5 0.00 0.00 0.00 62 1011.8
20260903220512 24 243 4.8 14.5 0.00 0.00 0.00 62 1011.8
20260903220412 24 238 4.8 14.5 0.00 0.00 0.00 61 1011.8
20260903220312 24 203 3.2 14.5 0.00 0.00 0.00 62 1011.8
20260903220235 24 253 3.2 14.5 0.00 0.00 0.00 62 1011.8
20260903220208 24 193 3.2 14.5 0.00 0.00 0.00 62 1011.8
20260903220107 24 253 4.8 14.5 0.00 0.00 0.00 62 1011.8
20260903220007 24 218 4.8 14.5 0.00 0.00 0.00 61 1011.9
20260903220000 24 271 6.4 20.9 0.00 0.00 0.00 62 1011.9
20260903215907 24 245 4.8 17.7 0.00 0.00 0.00 61 1011.9
20260903215848 24 321 6.4 20.9 0.00 0.00 0.00 61 1011.9
20260903215657 24 205 6.4 20.9 0.00 0.00 0.00 62 1011.8
20260903215558 24 240 6.4 20.9 0.00 0.00 0.00 62 1011.9
20260903215458 24 232 6.4 20.9 0.00 0.00 0.00 62 1011.9
20260903215357 24 257 6.4 20.9 0.00 0.00 0.00 62 1011.9
20260903215257 24 226 6.4 20.9 0.00 0.00 0.00 62 1011.9
20260903215232 24 200 6.4 20.9 0.00 0.00 0.00 62 1011.9
20260903215152 24 248 6.4 20.9 0.00 0.00 0.00 62 1012.0
20260903215052 24 242 6.4 20.9 0.00 0.00 0.00 61 1011.9
20260903214954 24 222 4.8 20.9 0.00 0.00 0.00 60 1012.0
20260903214852 24 239 3.2 17.7 0.00 0.00 0.00 60 1011.9
20260903214750 24 230 3.2 14.5 0.00 0.00 0.00 60 1011.9
20260903214737 24 238 3.2 12.9 0.00 0.00 0.00 60 1011.9
20260903214644 24 287 3.2 12.9 0.00 0.00 0.00 60 1011.9
20260903214544 24 207 3.2 14.5 0.00 0.00 0.00 60 1011.9
20260903214455 24 232 3.2 17.7 0.00 0.00 0.00 61 1012.0
20260903214444 24 148 3.2 17.7 0.00 0.00 0.00 60 1011.9
20260903214352 24 214 3.2 17.7 0.00 0.00 0.00 61 1011.9
20260903214343 24 243 3.2 17.7 0.00 0.00 0.00 61 1012.0
20260903214140 24 281 3.2 17.7 0.00 0.00 0.00 61 1012.0
20260903214040 24 231 3.2 17.7 0.00 0.00 0.00 61 1012.0
20260903213940 24 243 4.8 17.7 0.00 0.00 0.00 61 1012.0
20260903213838 24 234 4.8 17.7 0.00 0.00 0.00 61 1012.0
20260903213740 24 253 6.4 20.9 0.00 0.00 0.00 61 1012.1
20260903213632 24 263 6.4 20.9 0.00 0.00 0.00 61 1012.1
20260903213532 24 208 6.4 20.9 0.00 0.00 0.00 62 1012.0
20260903213432 24 307 6.4 20.9 0.00 0.00 0.00 61 1012.1
20260903213332 24 240 6.4 20.9 0.00 0.00 0.00 61 1012.0
20260903213230 23 228 8.0 20.9 0.00 0.00 0.00 61 1012.0
20260903213125 23 223 8.0 20.9 0.00 0.00 0.00 61 1012.1
20260903213024 23 243 9.7 20.9 0.00 0.00 0.00 60 1012.1
20260903212924 23 214 9.7 20.9 0.00 0.00 0.00 60 1012.1
20260903212824 24 219 9.7 20.9 0.00 0.00 0.00 60 1012.1
20260903212724 24 238 9.7 20.9 0.00 0.00 0.00 60 1012.1
20260903212618 24 218 8.0 20.9 0.00 0.00 0.00 61 1012.2
20260903212518 23 219 9.7 20.9 0.00 0.00 0.00 61 1012.2
20260903212417 23 233 9.7 20.9 0.00 0.00 0.00 61 1012.2
20260903212318 23 221 8.0 20.9 0.00 0.00 0.00 60 1012.2
20260903212220 23 222 8.0 20.9 0.00 0.00 0.00 60 1012.2
20260903212112 24 216 8.0 20.9 0.00 0.00 0.00 60 1012.2
20260903212012 24 222 6.4 20.9 0.00 0.00 0.00 60 1012.2
20260903211912 24 198 6.4 20.9 0.00 0.00 0.00 60 1012.2
20260903211812 24 250 6.4 16.1 0.00 0.00 0.00 60 1012.2
20260903211713 24 225 6.4 16.1 0.00 0.00 0.00 60 1012.2
20260903211608 24 236 6.4 19.3 0.00 0.00 0.00 59 1012.2
20260903211510 24 198 6.4 19.3 0.00 0.00 0.00 60 1012.3
20260903211408 24 239 6.4 19.3 0.00 0.00 0.00 60 1012.3
20260903211308 24 262 6.4 19.3 0.00 0.00 0.00 60 1012.3
20260903211206 24 252 6.4 19.3 0.00 0.00 0.00 60 1012.2
20260903211101 24 243 4.8 19.3 0.00 0.00 0.00 59 1012.2
20260903211000 24 243 4.8 19.3 0.00 0.00 0.00 59 1012.2
20260903210901 25 263 4.8 19.3 0.00 0.00 0.00 59 1012.2
20260903210800 25 238 3.2 19.3 0.00 0.00 0.00 59 1012.2
20260903210706 25 290 3.2 19.3 0.00 0.00 0.00 59 1012.2
20260903210700 25 230 3.2 19.3 0.00 0.00 0.00 59 1012.2
20260903210557 25 250 3.2 12.9 0.00 0.00 0.00 59 1012.2
20260903210456 25 282 3.2 12.9 0.00 0.00 0.00 59 1012.2
20260903210425 25 286 3.2 12.9 0.00 0.00 0.00 60 1012.3
20260903210356 25 250 3.2 12.9 0.00 0.00 0.00 59 1012.2
20260903210311 25 131 3.2 11.3 0.00 0.00 0.00 59 1012.3
20260903210154 25 216 3.2 12.9 0.00 0.00 0.00 60 1012.3
20260903210049 25 256 3.2 12.9 0.00 0.00 0.00 60 1012.3
20260903205949 25 274 3.2 16.1 0.00 0.00 0.00 60 1012.3
20260903205848 25 228 3.2 16.1 0.00 0.00 0.00 60 1012.3
20260903205748 25 350 3.2 16.1 0.00 0.00 0.00 60 1012.3
20260903205701 25 245 4.8 16.1 0.00 0.00 0.00 60 1012.4
20260903205647 25 245 4.8 16.1 0.00 0.00 0.00 59 1012.4
20260903205544 25 270 4.8 16.1 0.00 0.00 0.00 59 1012.3
20260903205442 25 214 4.8 16.1 0.00 0.00 0.00 60 1012.3
20260903205341 25 246 4.8 16.1 0.00 0.00 0.00 59 1012.4
20260903205242 25 239 4.8 16.1 0.00 0.00 0.00 59 1012.3
20260903205201 25 245 4.8 16.1 0.00 0.00 0.00 59 1012.3
20260903205141 24 262 4.8 16.1 0.00 0.00 0.00 60 1012.3
20260903205040 24 158 4.8 16.1 0.00 0.00 0.00 60 1012.3
20260903204939 24 226 3.2 16.1 0.00 0.00 0.00 60 1012.3
20260903204840 24 298 4.8 16.1 0.00 0.00 0.00 60 1012.4
20260903204738 24 294 4.8 16.1 0.00 0.00 0.00 59 1012.4
20260903204701 24 294 4.8 16.1 0.00 0.00 0.00 59 1012.4
20260903204636 24 295 4.8 16.1 0.00 0.00 0.00 60 1012.4
20260903204530 24 263 4.8 16.1 0.00 0.00 0.00 60 1012.4
20260903204429 25 238 4.8 19.3 0.00 0.00 0.00 59 1012.4
20260903204330 25 235 4.8 19.3 0.00 0.00 0.00 59 1012.4
20260903204230 25 233 4.8 19.3 0.00 0.00 0.00 59 1012.4
20260903204201 25 291 4.8 19.3 0.00 0.00 0.00 59 1012.4
20260903204130 25 276 4.8 19.3 0.00 0.00 0.00 59 1012.4
20260903204026 25 248 4.8 19.3 0.00 0.00 0.00 58 1012.4
20260903203926 25 216 3.2 19.3 0.00 0.00 0.00 58 1012.5
20260903203825 25 239 3.2 19.3 0.00 0.00 0.00 58 1012.5
20260903203729 25 271 3.2 20.9 0.00 0.00 0.00 58 1012.5
20260903203659 25 243 4.8 20.9 0.00 0.00 0.00 58 1012.5
20260903203625 25 226 4.8 20.9 0.00 0.00 0.00 58 1012.5
20260903203520 25 291 4.8 20.9 0.00 0.00 0.00 58 1012.5
20260903203420 25 228 3.2 20.9 0.00 0.00 0.00 58 1012.5
20260903203320 25 212 3.2 20.9 0.00 0.00 0.00 59 1012.5
20260903203220 25 233 3.2 20.9 0.00 0.00 0.00 59 1012.5
20260903203158 25 310 4.8 20.9 0.00 0.00 0.00 59 1012.5
20260903203117 25 284 4.8 20.9 0.00 0.00 0.00 59 1012.5
20260903203013 25 164 4.8 20.9 0.00 0.00 0.00 59 1012.5
20260903202912 25 267 3.2 20.9 0.00 0.00 0.00 59 1012.5
20260903202813 25 248 3.2 20.9 0.00 0.00 0.00 58 1012.5
20260903202712 25 173 3.2 19.3 0.00 0.00 0.00 58 1012.5
20260903202656 25 208 3.2 17.7 0.00 0.00 0.00 58 1012.5
20260903202612 25 156 1.6 12.9 0.00 0.00 0.00 58 1012.6
20260903202508 25 218 3.2 12.9 0.00 0.00 0.00 59 1012.6
20260903202406 25 243 3.2 12.9 0.00 0.00 0.00 59 1012.5
20260903202306 24 236 3.2 14.5 0.00 0.00 0.00 59 1012.5
20260903202205 24 243 3.2 14.5 0.00 0.00 0.00 59 1012.5
20260903202155 24 252 3.2 14.5 0.00 0.00 0.00 60 1012.5
20260903202103 24 255 4.8 16.1 0.00 0.00 0.00 60 1012.5
20260903202000 24 255 4.8 20.9 0.00 0.00 0.00 60 1012.5
20260903201857 24 255 6.4 20.9 0.00 0.00 0.00 61 1012.6
20260903201758 23 287 8.0 20.9 0.00 0.00 0.00 61 1012.6
20260903201659 23 229 8.0 24.1 0.00 0.00 0.00 61 1012.6
20260903201555 23 217 9.7 24.1 0.00 0.00 0.00 60 1012.6
20260903201450 23 193 9.7 24.1 0.00 0.00 0.00 60 1012.6
20260903201350 23 245 8.0 24.1 0.00 0.00 0.00 59 1012.6
20260903201250 23 260 8.0 24.1 0.00 0.00 0.00 60 1012.6
20260903201156 23 208 8.0 24.1 0.00 0.00 0.00 59 1012.7
20260903201151 23 200 8.0 24.1 0.00 0.00 0.00 59 1012.7
20260903201048 23 270 8.0 24.1 0.00 0.00 0.00 59 1012.6
20260903200942 23 240 6.4 24.1 0.00 0.00 0.00 59 1012.7
20260903200842 24 239 6.4 24.1 0.00 0.00 0.00 58 1012.7
20260903200742 24 208 4.8 20.9 0.00 0.00 0.00 58 1012.7
20260903200653 24 277 4.8 16.1 0.00 0.00 0.00 59 1012.7
20260903200642 24 281 4.8 16.1 0.00 0.00 0.00 59 1012.7
20260903200542 24 243 4.8 16.1 0.00 0.00 0.00 59 1012.7
20260903200442 24 236 4.8 16.1 0.00 0.00 0.00 60 1012.7
20260903200342 24 260 6.4 16.1 0.00 0.00 0.00 60 1012.7
20260903200242 23 225 6.4 17.7 0.00 0.00 0.00 60 1012.7
20260903200151 23 187 6.4 17.7 0.00 0.00 0.00 60 1012.7
20260903200143 23 246 6.4 17.7 0.00 0.00 0.00 60 1012.7
20260903200042 23 235 6.4 17.7 0.00 0.00 0.00 60 1012.8
20260903195942 23 257 6.4 17.7 0.00 0.00 0.00 61 1012.8
20260903195840 23 246 6.4 17.7 0.00 0.00 0.00 61 1012.8
20260903195740 23 211 6.4 19.3 0.00 0.00 0.00 61 1012.8
20260903195650 23 236 6.4 19.3 0.00 0.00 0.00 61 1012.8
20260903195641 23 241 6.4 19.3 0.00 0.00 0.00 61 1012.8
20260903195538 23 253 6.4 19.3 0.00 0.00 0.00 60 1012.8
20260903195438 24 228 6.4 19.3 0.00 0.00 0.00 60 1012.9
20260903195336 24 252 4.8 19.3 0.00 0.00 0.00 61 1012.9
20260903195236 24 245 4.8 19.3 0.00 0.00 0.00 61 1012.9
20260903195151 23 245 4.8 19.3 0.00 0.00 0.00 61 1012.9
20260903195137 23 238 4.8 19.3 0.00 0.00 0.00 61 1012.9
20260903195036 24 201 4.8 19.3 0.00 0.00 0.00 60 1013.0
20260903194935 24 233 4.8 19.3 0.00 0.00 0.00 60 1013.0
20260903194836 24 219 3.2 19.3 0.00 0.00 0.00 60 1013.0
20260903194734 24 245 3.2 11.3 0.00 0.00 0.00 60 1012.9
20260903194651 24 235 3.2 11.3 0.00 0.00 0.00 60 1012.9
20260903194635 24 226 3.2 11.3 0.00 0.00 0.00 60 1012.9
20260903194533 24 298 3.2 11.3 0.00 0.00 0.00 61 1013.0
20260903194432 24 298 3.2 11.3 0.00 0.00 0.00 61 1012.9
20260903194330 24 307 3.2 11.3 0.00 0.00 0.00 60 1012.9
20260903194228 24 225 3.2 11.3 0.00 0.00 0.00 60 1012.9
20260903194144 24 256 3.2 11.3 0.00 0.00 0.00 60 1012.9
20260903194129 24 284 3.2 11.3 0.00 0.00 0.00 60 1012.9
20260903194028 24 238 3.2 11.3 0.00 0.00 0.00 61 1013.0
20260903193926 24 248 3.2 12.9 0.00 0.00 0.00 61 1013.0
20260903193823 24 248 4.8 14.5 0.00 0.00 0.00 61 1013.0
20260903193727 24 245 4.8 14.5 0.00 0.00 0.00 60 1013.0
20260903193625 24 245 4.8 14.5 0.00 0.00 0.00 62 1013.0
20260903193519 24 245 4.8 14.5 0.00 0.00 0.00 61 1013.0
20260903193420 24 198 4.8 14.5 0.00 0.00 0.00 60 1013.1
20260903193317 24 226 6.4 14.5 0.00 0.00 0.00 60 1013.1
20260903193212 24 235 6.4 14.5 0.00 0.00 0.00 60 1013.1
20260903193132 24 238 6.4 14.5 0.00 0.00 0.00 60 1013.1
20260903193112 24 271 8.0 17.7 0.00 0.00 0.00 60 1013.1
20260903193011 24 263 8.0 22.5 0.00 0.00 0.00 60 1013.1
20260903192912 24 245 8.0 22.5 0.00 0.00 0.00 59 1013.1
20260903192812 24 246 6.4 22.5 0.00 0.00 0.00 59 1013.2
20260903192706 24 253 6.4 22.5 0.00 0.00 0.00 60 1013.2
20260903192626 24 256 6.4 22.5 0.00 0.00 0.00 60 1013.2
20260903192606 24 300 6.4 22.5 0.00 0.00 0.00 60 1013.1
20260903192506 24 180 6.4 22.5 0.00 0.00 0.00 59 1013.2
20260903192406 24 226 4.8 22.5 0.00 0.00 0.00 58 1013.1
20260903192306 25 235 4.8 22.5 0.00 0.00 0.00 57 1013.2
20260903192200 25 249 4.8 22.5 0.00 0.00 0.00 56 1013.2
20260903192121 25 238 4.8 22.5 0.00 0.00 0.00 56 1013.2
20260903192100 25 243 3.2 19.3 0.00 0.00 0.00 56 1013.2
20260903192000 25 145 3.2 16.1 0.00 0.00 0.00 56 1013.2
20260903191900 25 218 3.2 16.1 0.00 0.00 0.00 57 1013.2
20260903191759 25 228 4.8 16.1 0.00 0.00 0.00 57 1013.2
20260903191701 25 228 4.8 16.1 0.00 0.00 0.00 58 1013.2
20260903191615 25 225 4.8 16.1 0.00 0.00 0.00 58 1013.3
20260903191557 25 225 4.8 16.1 0.00 0.00 0.00 58 1013.3
20260903191455 25 224 4.8 16.1 0.00 0.00 0.00 58 1013.2
20260903191356 25 225 4.8 16.1 0.00 0.00 0.00 58 1013.3
20260903191332 25 212 4.8 16.1 0.00 0.00 0.00 58 1013.3
20260903191253 25 300 4.8 16.1 0.00 0.00 0.00 58 1013.3
20260903191219 25 246 4.8 16.1 0.00 0.00 0.00 58 1013.3
20260903191048 25 187 4.8 16.1 0.00 0.00 0.00 59 1013.3
20260903190947 25 231 3.2 16.1 0.00 0.00 0.00 58 1013.3
20260903190848 25 243 3.2 12.9 0.00 0.00 0.00 59 1013.3
20260903190747 24 256 3.2 12.9 0.00 0.00 0.00 59 1013.3
20260903190644 24 243 3.2 12.9 0.00 0.00 0.00 60 1013.3
20260903190602 24 221 3.2 12.9 0.00 0.00 0.00 60 1013.4
20260903190544 24 141 3.2 12.9 0.00 0.00 0.00 60 1013.4
20260903190444 24 236 4.8 14.5 0.00 0.00 0.00 60 1013.4
20260903190343 24 248 4.8 14.5 0.00 0.00 0.00 61 1013.4
20260903190241 24 248 3.2 14.5 0.00 0.00 0.00 61 1013.4
20260903190138 23 278 4.8 14.5 0.00 0.00 0.00 62 1013.4
20260903190109 23 50 3.2 14.5 0.00 0.00 0.00 62 1013.4
20260903190036 23 68 3.2 14.5 0.00 0.00 0.00 61 1013.4
20260903185937 23 246 3.2 14.5 0.00 0.00 0.00 61 1013.4
20260903185836 23 203 3.2 14.5 0.00 0.00 0.00 62 1013.4
20260903185735 23 142 3.2 14.5 0.00 0.00 0.00 61 1013.5
20260903185633 23 246 3.2 14.5 0.00 0.00 0.00 59 1013.5
20260903185550 24 246 3.2 14.5 0.00 0.00 0.00 59 1013.5
20260903185530 24 221 3.2 14.5 0.00 0.00 0.00 60 1013.5
20260903185430 24 248 1.6 11.3 0.00 0.00 0.00 61 1013.4
20260903185329 24 214 1.6 11.3 0.00 0.00 0.00 62 1013.5
20260903185306 24 256 1.6 11.3 0.00 0.00 0.00 62 1013.5
20260903185229 24 164 1.6 11.3 0.00 0.00 0.00 61 1013.5
20260903185156 24 172 1.6 11.3 0.00 0.00 0.00 62 1013.5
20260903185027 24 342 1.6 11.3 0.00 0.00 0.00 62 1013.5
20260903184928 24 342 1.6 11.3 0.00 0.00 0.00 62 1013.5
20260903184826 23 246 1.6 11.3 0.00 0.00 0.00 62 1013.5
20260903184726 23 253 1.6 11.3 0.00 0.00 0.00 62 1013.5
20260903184624 24 222 1.6 11.3 0.00 0.00 0.00 62 1013.6
20260903184538 24 242 1.6 11.3 0.00 0.00 0.00 62 1013.6
20260903184522 24 233 1.6 6.4 0.00 0.00 0.00 63 1013.6
20260903184422 23 228 1.6 6.4 0.00 0.00 0.00 62 1013.6
20260903184320 23 245 1.6 4.8 0.00 0.00 0.00 63 1013.6
20260903184218 23 204 1.6 3.2 0.00 0.00 0.00 63 1013.7
20260903184112 23 203 1.6 12.9 0.00 0.00 0.00 63 1013.6
20260903184033 23 238 1.6 12.9 0.00 0.00 0.00 63 1013.6
20260903184012 23 238 1.6 12.9 0.00 0.00 0.00 64 1013.6
20260903183912 23 238 1.6 12.9 0.00 0.00 0.00 63 1013.7
20260903183812 23 238 1.6 12.9 0.00 0.00 0.00 64 1013.7
20260903183711 23 236 3.2 14.5 0.00 0.00 0.00 64 1013.7
20260903183608 23 226 3.2 14.5 0.00 0.00 0.00 64 1013.7
20260903183526 23 256 3.2 14.5 0.00 0.00 0.00 64 1013.7
20260903183506 23 256 4.8 14.5 0.00 0.00 0.00 64 1013.7
20260903183405 23 256 4.8 14.5 0.00 0.00 0.00 64 1013.7
20260903183306 23 256 4.8 14.5 0.00 0.00 0.00 65 1013.7
20260903183205 23 255 4.8 14.5 0.00 0.00 0.00 64 1013.7
20260903183101 23 221 4.8 14.5 0.00 0.00 0.00 64 1013.7
20260903183021 23 192 4.8 14.5 0.00 0.00 0.00 64 1013.7
20260903183000 23 182 6.4 14.5 0.00 0.00 0.00 65 1013.7
20260903182900 23 250 6.4 14.5 0.00 0.00 0.00 64 1013.8
20260903182800 23 141 6.4 14.5 0.00 0.00 0.00 65 1013.7
20260903182700 23 163 6.4 12.9 0.00 0.00 0.00 65 1013.8
20260903182553 23 226 6.4 12.9 0.00 0.00 0.00 64 1013.8
20260903182514 23 212 6.4 12.9 0.00 0.00 0.00 65 1013.7
20260903182453 22 166 6.4 12.9 0.00 0.00 0.00 65 1013.7
20260903182354 22 230 6.4 12.9 0.00 0.00 0.00 65 1013.7
20260903182254 22 203 6.4 14.5 0.00 0.00 0.00 66 1013.7
20260903182153 22 211 6.4 14.5 0.00 0.00 0.00 67 1013.7
20260903182052 22 160 6.4 14.5 0.00 0.00 0.00 67 1013.8
20260903182008 22 139 6.4 14.5 0.00 0.00 0.00 67 1013.8
20260903181952 22 216 6.4 14.5 0.00 0.00 0.00 67 1013.8
20260903181850 22 198 6.4 14.5 0.00 0.00 0.00 68 1013.8
20260903181749 22 250 6.4 14.5 0.00 0.00 0.00 68 1013.9
20260903181648 22 240 6.4 14.5 0.00 0.00 0.00 67 1013.8
20260903181544 22 243 6.4 14.5 0.00 0.00 0.00 67 1013.9
20260903181503 22 232 6.4 14.5 0.00 0.00 0.00 67 1013.9
20260903181444 22 224 6.4 14.5 0.00 0.00 0.00 67 1013.9
20260903181345 22 242 6.4 16.1 0.00 0.00 0.00 66 1013.9
20260903181244 22 248 6.4 16.1 0.00 0.00 0.00 67 1013.9
20260903181143 22 235 6.4 16.1 0.00 0.00 0.00 67 1013.9
20260903181037 22 243 6.4 16.1 0.00 0.00 0.00 67 1013.9
20260903180956 22 231 6.4 16.1 0.00 0.00 0.00 68 1013.9
20260903180937 22 238 6.4 16.1 0.00 0.00 0.00 69 1013.9
20260903180836 22 230 6.4 16.1 0.00 0.00 0.00 68 1013.9
20260903180736 22 238 6.4 16.1 0.00 0.00 0.00 68 1013.9
20260903180636 22 204 6.4 16.1 0.00 0.00 0.00 67 1013.9
20260903180530 22 222 4.8 16.1 0.00 0.00 0.00 67 1013.9
20260903180450 22 217 4.8 16.1 0.00 0.00 0.00 66 1013.9
20260903180430 22 259 4.8 16.1 0.00 0.00 0.00 66 1013.9
20260903180331 22 259 3.2 12.9 0.00 0.00 0.00 66 1013.9
20260903180230 22 231 3.2 12.9 0.00 0.00 0.00 68 1013.9
20260903180131 22 146 3.2 9.7 0.00 0.00 0.00 68 1013.9
20260903180026 22 215 4.8 12.9 0.00 0.00 0.00 69 1013.9
20260903175944 22 238 4.8 12.9 0.00 0.00 0.00 68 1013.9
20260903175925 22 212 4.8 12.9 0.00 0.00 0.00 68 1013.9
20260903175824 22 235 4.8 12.9 0.00 0.00 0.00 68 1013.9
20260903175724 22 224 4.8 12.9 0.00 0.00 0.00 69 1013.9
20260903175625 22 169 3.2 12.9 0.00 0.00 0.00 70 1013.9
20260903175520 21 266 4.8 12.9 0.00 0.00 0.00 69 1013.9
20260903175445 21 267 4.8 12.9 0.00 0.00 0.00 68 1014.0
20260903175420 21 231 4.8 12.9 0.00 0.00 0.00 68 1014.0
20260903175319 22 137 4.8 12.9 0.00 0.00 0.00 67 1014.0
20260903175220 22 233 4.8 12.9 0.00 0.00 0.00 68 1014.0
20260903175122 22 183 4.8 12.9 0.00 0.00 0.00 67 1014.0
20260903175019 22 273 4.8 12.9 0.00 0.00 0.00 69 1014.0
20260903174945 22 246 4.8 12.9 0.00 0.00 0.00 69 1014.0
20260903174920 22 241 4.8 12.9 0.00 0.00 0.00 69 1014.0
20260903174818 21 215 3.2 12.9 0.00 0.00 0.00 70 1014.0
20260903174718 21 217 4.8 12.9 0.00 0.00 0.00 69 1014.0
20260903174616 21 218 4.8 12.9 0.00 0.00 0.00 68 1014.0
20260903174506 21 232 4.8 12.9 0.00 0.00 0.00 69 1014.0
20260903174445 21 177 4.8 12.9 0.00 0.00 0.00 69 1014.0
20260903174404 21 225 4.8 12.9 0.00 0.00 0.00 69 1014.1
20260903174305 21 238 3.2 12.9 0.00 0.00 0.00 69 1014.1
20260903174204 21 150 3.2 9.7 0.00 0.00 0.00 69 1014.1
20260903174102 21 145 3.2 9.7 0.00 0.00 0.00 69 1014.1
20260903174000 21 203 3.2 9.7 0.00 0.00 0.00 69 1014.1
20260903173945 21 207 3.2 9.7 0.00 0.00 0.00 69 1014.1
20260903173858 21 201 3.2 9.7 0.00 0.00 0.00 70 1014.1
20260903173758 21 164 3.2 9.7 0.00 0.00 0.00 72 1014.1
20260903173658 21 134 3.2 9.7 0.00 0.00 0.00 71 1014.1
20260903173555 21 180 3.2 9.7 0.00 0.00 0.00 72 1014.1
20260903173456 21 161 3.2 11.3 0.00 0.00 0.00 72 1014.1
20260903173445 21 191 3.2 11.3 0.00 0.00 0.00 72 1014.1
20260903173353 21 191 3.2 11.3 0.00 0.00 0.00 72 1014.1
20260903173254 20 219 3.2 11.3 0.00 0.00 0.00 73 1014.1
20260903173153 20 219 3.2 11.3 0.00 0.00 0.00 73 1014.0
20260903173049 20 219 3.2 11.3 0.00 0.00 0.00 74 1014.1
20260903172947 20 226 4.8 11.3 0.00 0.00 0.00 73 1014.1
20260903172843 20 173 4.8 14.5 0.00 0.00 0.00 73 1014.1
20260903172744 20 129 4.8 14.5 0.00 0.00 0.00 74 1014.1
20260903172645 20 233 4.8 14.5 0.00 0.00 0.00 74 1014.1
20260903172543 20 198 4.8 14.5 0.00 0.00 0.00 75 1014.1
20260903172440 20 207 4.8 14.5 0.00 0.00 0.00 75 1014.1
20260903172341 20 203 4.8 14.5 0.00 0.00 0.00 75 1014.2
20260903172239 20 242 6.4 14.5 0.00 0.00 0.00 74 1014.2
20260903172212 20 253 4.8 14.5 0.00 0.00 0.00 74 1014.2
20260903172139 20 233 6.4 14.5 0.00 0.00 0.00 74 1014.2
20260903172104 20 243 6.4 14.5 0.00 0.00 0.00 74 1014.2
20260903171932 20 212 4.8 12.9 0.00 0.00 0.00 74 1014.2
20260903171832 20 284 4.8 12.9 0.00 0.00 0.00 74 1014.3
20260903171732 20 233 4.8 12.9 0.00 0.00 0.00 74 1014.2
20260903171712 20 238 4.8 12.9 0.00 0.00 0.00 74 1014.3
20260903171634 20 210 4.8 12.9 0.00 0.00 0.00 75 1014.2
20260903171552 20 210 4.8 12.9 0.00 0.00 0.00 74 1014.3
20260903171426 20 200 4.8 12.9 0.00 0.00 0.00 74 1014.3
20260903171325 20 257 4.8 12.9 0.00 0.00 0.00 74 1014.2
20260903171226 20 245 4.8 9.7 0.00 0.00 0.00 75 1014.3
20260903171127 20 219 4.8 9.7 0.00 0.00 0.00 75 1014.3
20260903171025 20 236 4.8 9.7 0.00 0.00 0.00 75 1014.3
20260903170939 20 170 4.8 9.7 0.00 0.00 0.00 75 1014.3
20260903170917 20 136 4.8 11.3 0.00 0.00 0.00 75 1014.3
20260903170818 19 217 4.8 11.3 0.00 0.00 0.00 75 1014.3
20260903170718 19 154 4.8 11.3 0.00 0.00 0.00 75 1014.3
20260903170622 19 231 4.8 11.3 0.00 0.00 0.00 75 1014.3
20260903170517 19 250 4.8 11.3 0.00 0.00 0.00 75 1014.3
20260903170439 19 235 4.8 11.3 0.00 0.00 0.00 75 1014.3
20260903170416 19 259 4.8 11.3 0.00 0.00 0.00 75 1014.3
20260903170315 19 243 4.8 11.3 0.00 0.00 0.00 75 1014.3
20260903170216 19 284 4.8 11.3 0.00 0.00 0.00 76 1014.3
20260903170119 19 143 4.8 11.3 0.00 0.00 0.00 75 1014.3
20260903170016 19 236 4.8 11.3 0.00 0.00 0.00 75 1014.3
20260903165939 19 226 4.8 11.3 0.00 0.00 0.00 75 1014.3
20260903165916 19 256 4.8 11.3 0.00 0.00 0.00 75 1014.3
20260903165816 19 238 3.2 11.3 0.00 0.00 0.00 75 1014.3
20260903165716 20 226 3.2 9.7 0.00 0.00 0.00 74 1014.3
20260903165621 20 222 3.2 9.7 0.00 0.00 0.00 75 1014.3
20260903165516 20 214 3.2 9.7 0.00 0.00 0.00 75 1014.3
20260903165416 20 256 3.2 9.7 0.00 0.00 0.00 75 1014.3
20260903165312 20 256 4.8 9.7 0.00 0.00 0.00 75 1014.4
20260903165213 20 233 3.2 12.9 0.00 0.00 0.00 75 1014.3
20260903165112 20 232 3.2 12.9 0.00 0.00 0.00 75 1014.4
20260903165012 20 232 3.2 12.9 0.00 0.00 0.00 75 1014.4
20260903164937 20 239 3.2 12.9 0.00 0.00 0.00 75 1014.4
20260903164912 20 217 3.2 12.9 0.00 0.00 0.00 76 1014.3
20260903164811 19 198 3.2 12.9 0.00 0.00 0.00 76 1014.4
20260903164706 19 198 3.2 12.9 0.00 0.00 0.00 75 1014.4
20260903164606 19 223 3.2 12.9 0.00 0.00 0.00 75 1014.4
20260903164506 19 228 3.2 12.9 0.00 0.00 0.00 75 1014.4
20260903164438 19 212 3.2 12.9 0.00 0.00 0.00 75 1014.4
20260903164406 19 216 3.2 12.9 0.00 0.00 0.00 74 1014.4
20260903164304 20 249 1.6 12.9 0.00 0.00 0.00 74 1014.4
20260903164204 20 243 1.6 8.0 0.00 0.00 0.00 75 1014.3
20260903164102 20 218 1.6 8.0 0.00 0.00 0.00 75 1014.3
20260903163936 20 225 3.2 8.0 0.00 0.00 0.00 76 1014.3
20260903163901 19 225 3.2 8.0 0.00 0.00 0.00 75 1014.3
20260903163757 19 225 3.2 8.0 0.00 0.00 0.00 76 1014.4
20260903163658 19 233 3.2 8.0 0.00 0.00 0.00 76 1014.4
20260903163555 19 242 3.2 8.0 0.00 0.00 0.00 75 1014.4
20260903163456 19 237 3.2 8.0 0.00 0.00 0.00 75 1014.4
20260903163430 19 235 3.2 8.0 0.00 0.00 0.00 75 1014.4
20260903163354 19 231 3.2 8.0 0.00 0.00 0.00 75 1014.4
20260903163251 20 225 3.2 8.0 0.00 0.00 0.00 74 1014.4
20260903163146 20 210 3.2 8.0 0.00 0.00 0.00 74 1014.4
20260903163046 20 233 3.2 8.0 0.00 0.00 0.00 75 1014.4
20260903162946 20 138 1.6 8.0 0.00 0.00 0.00 75 1014.4
20260903162924 20 231 1.6 8.0 0.00 0.00 0.00 75 1014.4
20260903162846 20 166 1.6 8.0 0.00 0.00 0.00 75 1014.4
20260903162746 20 170 1.6 6.4 0.00 0.00 0.00 75 1014.4
20260903162643 20 236 1.6 8.0 0.00 0.00 0.00 74 1014.4
20260903162542 20 235 1.6 8.0 0.00 0.00 0.00 75 1014.4
20260903162442 20 139 1.6 8.0 0.00 0.00 0.00 75 1014.4
20260903162418 20 150 1.6 8.0 0.00 0.00 0.00 75 1014.4
20260903162343 20 246 3.2 8.0 0.00 0.00 0.00 76 1014.5
20260903162240 20 233 3.2 8.0 0.00 0.00 0.00 75 1014.5
20260903162134 20 174 3.2 8.0 0.00 0.00 0.00 76 1014.5
20260903162034 20 149 3.2 9.7 0.00 0.00 0.00 76 1014.5
20260903161934 20 146 3.2 9.7 0.00 0.00 0.00 75 1014.5
20260903161912 20 219 4.8 9.7 0.00 0.00 0.00 74 1014.5
20260903161833 20 219 4.8 9.7 0.00 0.00 0.00 74 1014.5
20260903161734 20 172 3.2 9.7 0.00 0.00 0.00 75 1014.5
20260903161630 20 218 3.2 9.7 0.00 0.00 0.00 75 1014.5
20260903161528 20 226 3.2 9.7 0.00 0.00 0.00 76 1014.5
20260903161427 20 134 3.2 9.7 0.00 0.00 0.00 75 1014.5
20260903161406 20 134 4.8 9.7 0.00 0.00 0.00 75 1014.5
20260903161328 20 226 4.8 9.7 0.00 0.00 0.00 75 1014.5
20260903161228 20 129 4.8 9.7 0.00 0.00 0.00 74 1014.5
20260903161124 20 117 3.2 9.7 0.00 0.00 0.00 75 1014.6
20260903161022 20 148 3.2 9.7 0.00 0.00 0.00 75 1014.6
20260903160922 20 200 3.2 9.7 0.00 0.00 0.00 76 1014.6
20260903160900 20 127 3.2 9.7 0.00 0.00 0.00 77 1014.6
20260903160822 19 158 3.2 9.7 0.00 0.00 0.00 77 1014.6
20260903160722 19 141 3.2 9.7 0.00 0.00 0.00 78 1014.6
20260903160622 19 150 4.8 9.7 0.00 0.00 0.00 77 1014.6
20260903160517 19 143 4.8 9.7 0.00 0.00 0.00 77 1014.6
20260903160416 19 136 4.8 9.7 0.00 0.00 0.00 77 1014.6
20260903160354 19 121 4.8 9.7 0.00 0.00 0.00 77 1014.6
20260903160316 18 108 4.8 9.7 0.00 0.00 0.00 77 1014.6
20260903160216 18 154 4.8 9.7 0.00 0.00 0.00 78 1014.6
20260903160112 18 204 3.2 9.7 0.00 0.00 0.00 78 1014.6
20260903160012 18 184 3.2 9.7 0.00 0.00 0.00 78 1014.6
20260903155912 18 217 4.8 9.7 0.00 0.00 0.00 78 1014.6
20260903155850 18 215 4.8 9.7 0.00 0.00 0.00 78 1014.6
20260903155812 18 241 4.8 9.7 0.00 0.00 0.00 78 1014.6
20260903155714 18 229 4.8 9.7 0.00 0.00 0.00 78 1014.6
20260903155604 18 201 4.8 9.7 0.00 0.00 0.00 78 1014.6
20260903155504 18 118 3.2 9.7 0.00 0.00 0.00 78 1014.6
20260903155404 18 146 3.2 9.7 0.00 0.00 0.00 78 1014.6
20260903155343 18 142 3.2 9.7 0.00 0.00 0.00 79 1014.6
20260903155306 18 137 3.2 9.7 0.00 0.00 0.00 79 1014.6